[{"header": {"dx": 0.06612293990616946, "dy": 0.0552356325346848, "nx": 98, "ny": 59, "la1": 35.046912555036876, "la2": 31.78801023549047, "lo1": -121.43107172385933, "lo2": -114.95102361305473, "refTime": "2026041303", "parameterCategory": 1, "parameterNumber": 2}, "data": [14.58, 14.37, 13.77, 13.19, 12.74, 11.93, 11.42, 10.92, 10.92, 11.33, 11.09, 9.0, 9.5, 8.73, 8.03, 8.38, 7.59, 6.87, 5.75, 5.75, 7.26, 6.7, 7.27, 8.49, 8.82, 9.16, 8.53, 8.32, 8.02, 7.41, 6.97, 7.73, 8.53, 12.07, 10.58, 8.91, 7.27, -4.0, -6.32, -8.05, 3.8, 4.4, 5.2, 6.67, 10.12, 12.52, 13.76, 14.66, 14.31, 11.96, 11.06, 11.63, 11.63, 12.11, 12.11, 12.16, 12.52, 12.52, 12.27, 12.27, 12.36, 12.36, 12.39, 11.8, 10.62, 8.91, 8.43, 8.93, 9.47, 10.19, 10.47, 11.06, 11.96, 13.74, 15.06, 15.42, 15.58, 15.61, 15.82, 13.94, 12.58, 10.38, 10.73, 12.07, 8.05, 4.11, 3.65, 3.85, 5.63, 6.73, 9.02, 9.8, 10.94, 11.9, 12.27, 12.27, 11.9, 10.73, 13.94, 14.1, 13.77, 13.19, 12.74, 11.93, 11.76, 11.76, 10.92, 11.33, 10.73, 9.76, 8.93, 7.59, 8.22, 7.9, 6.42, 6.97, 5.75, 5.1, 5.4, 6.7, 6.7, 8.01, 7.9, 7.9, 7.9, 7.56, 6.45, 6.21, 5.8, 5.8, 4.43, 6.7, 0.0, -3.8, -6.7, -7.81, -8.49, -0.0, 1.62, 3.68, 4.81, 9.16, 11.7, 14.11, 16.11, 14.66, 12.63, 11.3, 11.3, 11.87, 12.29, 11.8, 11.8, 11.76, 12.16, 12.16, 12.56, 12.56, 12.6, 12.39, 11.8, 11.33, 8.54, 8.46, 8.4, 8.68, 9.2, 10.77, 11.7, 12.7, 13.18, 13.58, 15.42, 15.58, 15.47, 15.61, 15.82, 13.94, 12.58, 10.38, 10.73, 12.07, 8.05, 4.11, 3.65, 3.85, 5.63, 6.73, 9.02, 9.8, 10.94, 11.9, 12.27, 12.27, 11.9, 10.73, 13.94, 14.1, 13.77, 13.19, 12.74, 11.93, 11.76, 11.76, 11.25, 11.44, 10.01, 7.96, 8.93, 8.22, 6.87, 6.87, 6.98, 6.98, 5.0, 5.6, 5.0, 5.2, 6.45, 7.28, 9.02, 7.65, 6.5, 5.95, 4.05, 3.21, 3.81, 4.27, 3.17, 1.43, -0.0, -8.49, -7.63, -4.0, -0.0, 1.28, 3.34, 5.15, 9.66, 12.64, 15.74, 16.74, 15.88, 14.47, 11.17, 11.52, 11.87, 11.93, 11.93, 11.93, 11.07, 11.76, 11.76, 12.65, 12.56, 12.99, 12.6, 12.21, 11.33, 10.18, 8.18, 8.72, 7.88, 8.68, 9.66, 11.38, 12.92, 14.57, 13.99, 14.24, 15.69, 15.74, 15.3, 15.34, 14.06, 13.67, 12.04, 11.4, 11.18, 9.17, 1.66, 2.18, 3.02, 3.65, 5.63, 7.69, 10.43, 11.44, 11.72, 12.39, 12.39, 12.39, 11.72, 11.37, 13.94, 13.67, 13.77, 13.19, 12.74, 12.74, 12.29, 11.76, 11.42, 11.09, 9.66, 8.3, 9.27, 7.9, 6.98, 6.98, 5.98, 4.48, 5.4, 4.4, 5.54, 5.52, 5.75, 7.56, 8.02, 9.02, 6.45, 5.1, 1.33, -0.0, 1.05, 0.89, 1.66, 3.36, 3.47, 2.82, 3.11, 5.0, 3.68, 3.85, 5.98, 9.12, 12.66, 13.79, 14.51, 14.46, 12.16, 11.53, 11.29, 11.72, 11.97, 12.07, 10.82, 10.63, 10.63, 11.07, 11.93, 12.74, 12.99, 12.6, 12.39, 11.6, 11.09, 10.01, 8.16, 7.66, 8.2, 8.68, 10.47, 10.61, 13.15, 14.28, 15.19, 13.86, 15.25, 15.6, 14.3, 13.41, 15.61, 13.36, 11.53, 12.07, 8.22, -0.0, -0.0, 1.13, 3.32, 4.89, 6.73, 9.8, 12.35, 12.27, 12.25, 12.25, 12.25, 11.72, 11.99, 11.99, 13.94, 13.67, 13.77, 13.19, 13.19, 12.74, 12.29, 11.76, 11.42, 11.09, 9.66, 8.68, 8.82, 7.9, 6.44, 6.97, 5.98, 4.48, 4.48, 3.32, 3.96, 5.75, 5.52, 5.98, 5.69, 7.02, 6.63, 5.2, 3.07, 1.09, -0.0, -0.0, -0.0, 1.77, 3.34, 4.48, 5.43, 7.54, 8.29, 6.44, 5.52, 9.67, 9.33, 9.8, 10.43, 11.09, 11.09, 11.53, 11.53, 11.88, 11.5, 10.99, 10.47, 10.3, 11.07, 11.07, 12.36, 12.36, 12.6, 12.58, 11.8, 11.72, 10.75, 8.4, 7.76, 8.05, 8.91, 8.7, 10.22, 11.25, 12.01, 14.17, 15.22, 16.1, 14.23, 13.82, 13.41, 12.52, 14.3, 13.86, 11.62, 10.8, -0.0, -0.0, -1.34, -0.0, 3.69, 7.06, 9.13, 11.69, 12.0, 11.88, 11.85, 11.92, 11.92, 11.64, 11.99, 11.99, 13.94, 13.75, 13.35, 13.62, 13.19, 12.74, 12.29, 11.42, 11.42, 11.09, 10.04, 8.32, 9.09, 7.59, 7.9, 6.2, 5.2, 5.4, 2.93, 3.04, 3.96, 4.75, 6.0, 5.8, 5.4, 5.4, 4.58, 3.92, 3.53, 3.92, 1.16, -0.0, -0.0, 1.5, 4.24, 6.42, 8.1, 10.36, 12.33, 3.09, -0.0, 5.63, 7.69, 8.94, 9.57, 10.75, 10.75, 12.09, 11.53, 11.16, 10.23, 10.02, 9.8, 10.3, 11.07, 11.9, 12.36, 12.79, 12.99, 12.38, 11.33, 10.12, 8.05, 7.0, 8.11, 8.77, 9.09, 8.22, 9.81, 11.25, 11.7, 12.45, 13.47, 15.02, 16.48, 15.09, 12.96, 12.52, 12.07, 12.07, 12.52, -0.0, -3.16, -1.78, -1.51, -0.0, 4.37, 8.46, 11.06, 11.36, 11.9, 12.62, 12.45, 11.6, 11.99, 11.64, 12.56, 12.56, 13.99, 13.99, 13.67, 13.77, 13.19, 12.45, 11.93, 11.93, 11.07, 11.53, 10.04, 7.95, 8.73, 8.38, 9.66, 6.2, 5.4, 5.6, 3.04, 3.04, 4.1, 6.4, 7.59, 6.16, 6.8, 6.6, 4.81, 5.63, 6.43, 5.95, 4.8, 1.16, 1.22, 1.22, 2.82, 5.63, 9.42, 11.28, 9.8, -0.0, -0.0, 2.13, 6.88, 8.31, 9.12, 10.43, 11.86, 12.11, 10.36, 10.52, 9.8, 9.48, 10.3, 10.73, 11.69, 12.39, 12.79, 12.72, 12.72, 12.18, 10.55, 5.81, 4.6, 5.65, 8.11, 9.37, 10.47, 9.82, 10.27, 12.02, 13.1, 12.5, 13.54, 14.96, 16.24, 16.48, 14.66, 12.35, 11.45, 12.39, 13.19, -0.0, -0.0, -0.0, -0.0, 1.63, 5.99, 10.3, 11.69, 11.35, 11.99, 12.93, 13.44, 12.66, 11.99, 12.14, 12.56, 12.33, 13.55, 13.99, 13.67, 13.35, 13.19, 12.45, 11.52, 11.52, 11.57, 11.16, 9.3, 7.95, 7.9, 7.9, 8.85, 7.9, 5.4, 5.8, 5.8, 4.24, 6.0, 9.48, -0.0, 4.95, 7.82, 9.12, 5.81, 8.28, 9.22, 8.38, 3.82, 1.71, 2.06, 2.06, 4.4, 7.82, 10.79, 10.0, 9.97, 3.68, -0.0, 2.72, 8.28, 10.61, 10.3, 10.43, 10.92, 12.11, 9.87, 9.71, 8.61, 9.48, 10.73, 11.69, 12.79, 12.72, 12.51, 12.75, 12.31, 11.72, 6.43, 3.47, 3.42, 5.98, 8.28, 10.76, 11.38, 12.02, 12.29, 13.62, 14.1, 14.81, 15.02, 15.65, 16.09, 15.2, 14.66, 11.88, 10.37, 12.36, 13.41, 10.19, 7.6, 3.9, 3.69, 4.52, 6.95, 10.43, 11.53, 12.21, 12.21, 12.46, 13.02, 12.87, 12.25, 13.09, 12.89, 12.39, 13.55, 13.99, 13.67, 13.2, 13.19, 12.45, 11.52, 11.52, 11.57, 10.79, 10.04, 9.81, 10.37, 10.12, 9.77, 8.85, 7.78, 8.05, 8.05, 7.44, 6.0, 9.48, 9.8, 10.12, 7.19, 6.2, 5.46, 9.8, 11.06, 7.36, 4.38, 2.98, 3.69, 7.69, 8.85, 10.79, 11.18, 10.6, 7.27, 4.8, 3.14, 5.48, 7.59, 7.82, 9.48, 10.23, 11.2, 10.75, 9.73, 9.73, 10.1, 9.64, 11.69, 12.17, 13.02, 12.71, 12.07, 12.07, 11.51, 8.38, 2.72, 2.35, 4.34, 6.16, 8.91, 11.83, 13.46, 14.61, 15.18, 14.58, 14.75, 14.75, 14.99, 14.42, 13.94, 14.03, 14.75, 10.43, 10.02, 12.01, 12.96, 12.33, 11.58, 10.15, 7.38, 6.2, 8.05, 10.37, 11.39, 11.96, 11.96, 12.58, 12.94, 13.99, 13.99, 13.57, 12.74, 11.88, 13.72, 13.55, 13.67, 13.2, 13.19, 12.45, 11.52, 11.52, 11.57, 11.2, 10.81, 11.2, 10.6, 11.72, 11.88, 10.73, 10.12, 11.8, 12.27, 9.48, 9.17, 9.17, 9.8, 6.4, 10.12, 9.67, 7.81, 7.59, 8.85, 7.36, 6.6, 7.4, 11.06, 13.86, 11.45, 10.6, 9.6, 4.2, 4.32, 4.1, 5.11, 5.8, 6.45, 8.93, 9.3, 9.53, 9.36, 9.17, 9.06, 10.22, 10.43, 10.12, 9.8, 9.97, 10.62, 10.41, 11.03, 11.03, -0.0, -0.0, 2.35, 3.42, 4.62, 6.56, 10.3, 12.76, 14.2, 15.69, 14.26, 13.67, 13.7, 13.07, 13.2, 13.19, 13.02, 13.88, 14.75, 6.8, 9.23, 10.87, 12.47, 12.96, 12.13, 11.48, 9.33, 8.05, 9.17, 10.41, 11.34, 11.71, 11.91, 12.75, 13.53, 14.31, 14.42, 13.48, 12.39, 11.88, 13.72, 13.55, 13.67, 13.62, 12.95, 12.45, 11.52, 11.93, 12.07, 11.58, 11.2, 11.97, 12.17, 12.39, 12.79, 12.79, 13.42, 13.99, 13.99, 15.19, 15.59, 16.54, 16.12, 13.99, 14.31, 12.3, 9.2, 8.55, 9.17, 11.09, 12.58, 12.3, 10.8, 10.0, 7.9, 5.4, 3.68, 3.68, 4.9, 6.73, 8.31, 7.44, 7.44, 8.22, 8.59, 7.59, 7.9, 7.9, 8.53, 8.61, 8.85, 9.35, 8.53, 7.11, 6.28, 7.11, 5.99, -0.0, -11.84, -2.72, 2.19, 4.67, 5.41, 7.63, 10.59, 13.58, 14.73, 13.97, 15.49, 6.87, 9.42, 11.12, 12.27, 11.29, 11.28, 13.86, 7.36, 7.82, 9.99, 11.32, 11.35, 11.92, 12.01, 11.79, 10.43, 8.83, 9.42, 10.55, 10.92, 10.96, 12.01, 13.33, 13.75, 13.88, 13.48, 12.79, 12.13, 11.9, 13.72, 13.55, 13.67, 13.62, 12.95, 12.45, 12.09, 12.45, 12.07, 11.58, 11.99, 12.39, 13.19, 13.02, 12.45, 11.44, 11.44, 13.48, 14.71, 15.52, 15.49, 15.61, 15.53, 16.09, 13.41, 12.96, 12.35, 7.63, 10.75, 10.08, 10.52, 10.79, 9.3, 5.06, 3.39, 2.82, 4.6, 5.4, 6.21, 7.79, 8.05, 8.59, 7.73, 7.9, 6.42, 5.46, 6.2, 6.45, 6.7, 5.99, 5.62, 7.2, 6.03, 5.8, 4.7, 6.42, 8.6, 8.16, -5.8, -5.31, -0.0, 5.47, 6.99, 7.42, 8.94, 11.8, 13.85, 12.18, 8.99, 0.0, 0.0, 5.63, 9.17, 9.17, 11.6, 8.31, 5.81, 8.33, 11.06, 11.52, 11.73, 11.52, 11.76, 11.76, 10.18, 9.17, 9.17, 10.4, 10.6, 11.55, 12.07, 12.52, 12.66, 12.33, 12.39, 12.5, 11.75, 12.03, 13.72, 13.5, 13.67, 13.62, 12.95, 12.95, 12.45, 12.07, 12.07, 12.39, 12.39, 12.79, 13.19, 13.84, 14.24, 13.59, 12.5, 11.99, 12.04, 12.25, 12.72, 13.09, 13.34, 13.34, 13.36, 13.36, 13.25, 13.25, 11.76, 9.49, 9.6, 8.22, 6.45, 5.54, 4.05, 3.11, 5.29, 5.0, 5.98, 5.4, 6.94, 6.94, 7.54, 6.42, 4.4, 4.4, 4.23, 5.99, 5.4, 4.58, 4.47, 4.21, 3.36, 2.57, 4.12, 6.71, 10.17, 11.43, 6.45, -2.13, -0.0, 4.38, 7.0, 5.63, 6.81, 7.11, 8.3, 9.16, 10.26, 11.0, 9.6, -4.34, -4.81, 12.52, 4.24, 7.4, 8.27, 10.39, 11.59, 12.5, 10.75, 11.25, 11.9, 12.0, 11.14, 10.92, 11.29, 11.72, 11.09, 11.18, 11.57, 11.35, 11.3, 12.33, 12.39, 12.66, 12.39, 12.39, 13.72, 13.5, 13.25, 13.2, 13.62, 12.56, 12.56, 12.56, 12.56, 12.79, 12.79, 12.79, 13.62, 14.03, 14.65, 14.39, 14.39, 13.59, 13.19, 13.28, 13.28, 13.7, 14.51, 15.43, 15.46, 15.46, 14.14, 13.99, 13.25, 11.6, 8.64, 7.65, 6.7, 5.32, 4.6, 4.4, 4.2, 3.82, 5.29, 5.52, 5.98, 6.2, 6.71, 6.98, 4.4, 4.4, 4.4, 5.0, 5.0, 5.2, 4.4, 3.19, 1.9, 1.96, 5.8, 8.02, 11.2, 13.96, 8.68, 1.71, -0.0, 2.89, 3.88, 5.19, 4.29, 4.95, 4.91, 5.08, 9.26, 14.88, 14.73, 12.71, -13.19, -0.0, 5.19, 8.65, 10.17, 11.93, 13.07, 12.84, 11.26, 11.53, 12.39, 12.96, 11.18, 11.28, 11.9, 12.03, 11.03, 11.18, 10.84, 11.18, 11.2, 11.99, 11.85, 12.25, 12.39, 12.79, 13.72, 13.5, 13.5, 13.57, 13.2, 13.02, 12.56, 12.56, 12.56, 12.79, 12.79, 13.62, 13.62, 14.03, 15.12, 15.36, 15.36, 15.36, 14.94, 14.7, 14.28, 14.66, 15.18, 15.91, 15.93, 16.17, 15.74, 14.95, 13.59, 11.93, 10.25, 7.93, 7.02, 5.95, 5.29, 3.65, 3.82, 3.49, 5.75, 5.29, 5.52, 5.98, 6.7, 6.7, 5.86, 5.06, 5.06, 5.7, 4.8, 4.8, 4.8, 3.25, 3.65, 3.8, 6.32, 8.05, 8.55, 10.99, 9.12, 3.76, -0.0, 1.33, 2.54, 3.53, 4.38, 4.89, 3.9, 5.23, 8.74, 13.53, 16.61, 15.75, 13.48, 2.28, 4.73, 8.97, 11.45, 13.1, 14.3, 14.24, 13.27, 12.39, 11.79, 11.96, 11.84, 12.39, 11.97, 11.16, 10.37, 10.99, 10.87, 11.09, 11.6, 11.33, 12.25, 12.98, 12.79, 12.79, 13.72, 13.5, 13.5, 13.57, 13.57, 13.02, 13.02, 12.56, 12.56, 13.2, 13.62, 13.62, 13.62, 14.42, 14.7, 15.12, 15.36, 15.77, 15.77, 15.54, 15.12, 15.61, 15.68, 16.17, 16.17, 16.17, 15.9, 15.02, 13.51, 12.65, 11.25, 10.27, 8.31, 6.45, 4.6, 2.46, 3.11, 3.65, 5.75, 5.52, 5.29, 5.52, 6.7, 6.14, 6.14, 6.14, 6.14, 5.06, 5.29, 5.06, 6.42, 6.42, 6.95, 6.32, 7.6, 7.6, 6.98, 6.76, 6.51, 5.27, 3.06, 1.39, 1.39, 3.92, 3.92, 3.82, 2.81, 5.63, 9.17, 13.16, 15.88, 17.76, 16.18, 8.88, 6.69, 10.38, 13.28, 14.2, 14.26, 14.26, 13.87, 14.58, 13.86, 12.66, 11.51, 11.95, 13.15, 11.75, 11.29, 11.29, 11.53, 10.61, 11.72, 12.25, 12.04, 12.33, 11.53, 11.53, 13.72, 13.7, 13.94, 13.15, 13.15, 13.02, 13.02, 13.43, 13.02, 13.2, 13.62, 13.62, 14.42, 14.42, 14.84, 14.7, 14.7, 15.54, 15.96, 15.96, 16.05, 15.68, 15.68, 15.74, 15.78, 15.47, 15.16, 14.61, 14.17, 14.09, 13.05, 11.48, 9.16, 8.31, 3.63, 3.14, 3.7, 3.98, 5.7, 5.29, 5.52, 4.6, 6.14, 5.59, 7.27, 7.27, 6.42, 6.42, 7.27, 6.95, 6.95, 8.05, 8.05, 8.4, 8.4, 8.4, 7.68, 7.27, 7.15, 7.02, 5.99, 4.05, 3.11, 5.06, 5.06, 2.04, 1.39, 4.39, 8.43, 13.91, 18.63, 17.47, 15.76, 9.67, 8.65, 11.64, 14.49, 15.13, 15.64, 14.64, 14.03, 13.16, 12.95, 11.75, 11.6, 10.73, 11.87, 10.86, 11.64, 12.45, 11.58, 11.2, 11.6, 12.74, 12.39, 11.12, 10.47, 10.47, 13.72, 13.7, 13.94, 13.88, 13.02, 13.02, 13.02, 13.02, 13.43, 13.62, 13.99, 14.42, 14.53, 14.42, 14.42, 14.42, 14.7, 15.12, 15.54, 15.96, 15.61, 15.91, 15.49, 14.86, 15.04, 15.38, 14.79, 14.29, 14.56, 14.33, 13.31, 12.13, 10.39, 8.7, 5.6, 4.56, 3.63, 4.6, 5.52, 4.6, 4.4, 5.46, 5.46, 6.95, 8.03, 7.27, 7.27, 7.27, 6.95, 7.87, 8.43, 8.43, 9.13, 8.43, 8.8, 7.68, 7.68, 7.27, 7.9, 7.44, 7.15, 5.95, 6.42, 5.9, 4.2, -0.0, -0.0, 3.68, 7.44, 13.42, 18.66, 18.2, 17.16, 13.18, 11.7, 13.59, 15.16, 15.86, 16.45, 14.26, 13.16, 14.09, 13.9, 10.52, 8.38, 8.3, 10.47, 11.09, 11.64, 13.2, 13.02, 12.17, 11.6, 12.39, 11.09, 9.8, 9.17, 9.17, 13.82, 13.7, 13.5, 13.88, 13.15, 13.02, 13.44, 13.44, 13.99, 13.99, 13.99, 14.42, 14.95, 14.95, 14.42, 16.12, 13.99, 14.84, 14.84, 14.75, 15.43, 15.91, 15.46, 16.22, 14.42, 15.69, 11.88, 14.85, 14.51, 13.1, 13.24, 11.64, 10.57, 8.55, 7.36, 5.6, 4.66, 4.73, 5.21, 6.98, 7.27, 6.42, 8.23, 7.68, 8.03, 8.03, 6.95, 6.95, 6.95, 7.68, 8.43, 8.43, 8.43, 8.43, 7.68, 8.03, 6.95, 7.59, 7.44, 7.44, 7.15, 7.59, 6.42, 6.32, 2.97, -0.0, 1.28, 5.95, 9.63, 12.88, 15.91, 17.62, 20.6, 18.79, 17.11, 16.35, 16.05, 16.43, 16.8, 16.53, 14.61, 15.27, 13.89, 11.37, 10.65, 10.79, 12.79, 13.19, 13.29, 13.34, 14.29, 13.78, 12.39, 10.73, 9.22, 9.02, 9.48, 9.48, 13.82, 13.7, 13.5, 13.44, 13.15, 13.15, 13.57, 13.57, 13.99, 13.99, 13.99, 14.53, 14.95, 14.95, 14.95, 14.53, 14.37, 14.31, 15.27, 14.84, 16.58, 15.87, 15.87, 17.02, 15.69, 15.49, 15.11, 14.17, 14.99, 14.13, 13.24, 11.35, 10.31, 9.67, 8.74, 7.82, 6.43, 6.09, 5.7, 5.68, 5.98, 6.98, 6.98, 7.33, 6.98, 8.73, 7.27, 7.27, 6.95, 7.33, 7.33, 7.33, 7.33, 7.68, 6.32, 6.64, 7.59, 6.95, 7.59, 8.22, 8.03, 8.03, 6.95, 5.06, 2.58, 1.62, 3.25, 8.93, 11.4, 12.96, 15.17, 16.8, 22.76, 23.25, 18.74, 16.41, 14.79, 14.79, 15.65, 15.3, 14.42, 14.95, 14.4, 12.72, 11.92, 12.14, 12.98, 13.57, 13.81, 13.81, 14.53, 15.27, 13.7, 11.17, 8.31, 9.71, 10.12, 10.12, 13.82, 13.7, 13.5, 13.44, 13.15, 13.15, 13.15, 13.57, 13.99, 14.42, 14.1, 14.53, 14.95, 15.04, 15.04, 15.04, 14.42, 14.37, 12.81, 15.12, 16.9, 16.35, 16.37, 15.74, 16.61, 16.12, 14.94, 15.39, 15.38, 15.33, 14.06, 11.83, 10.13, 9.43, 8.74, 8.51, 7.98, 7.01, 6.62, 6.17, 5.94, 6.62, 6.95, 6.95, 6.64, 7.59, 6.95, 6.95, 7.27, 7.68, 6.98, 7.33, 7.33, 6.95, 7.27, 7.56, 7.27, 7.81, 8.38, 8.82, 8.82, 7.87, 6.95, 4.6, 2.7, 3.39, 6.7, 9.46, 11.62, 12.3, 14.31, 16.86, 21.41, 18.1, 15.62, 14.47, 12.01, 12.63, 14.39, 16.09, 15.58, 14.94, 14.19, 13.28, 12.56, 12.89, 13.56, 14.23, 14.75, 14.16, 14.64, 14.9, 13.68, 10.77, 9.8, 10.12, 10.58, 10.58, 13.82, 13.7, 13.7, 13.5, 13.44, 13.15, 13.15, 13.57, 13.99, 14.53, 14.53, 14.53, 14.61, 15.04, 15.04, 15.12, 14.9, 14.42, 14.6, 16.39, 16.84, 16.37, 15.93, 15.78, 16.41, 16.96, 16.19, 14.99, 14.59, 14.57, 13.31, 11.83, 10.13, 9.43, 9.19, 9.19, 8.46, 7.89, 7.12, 6.71, 6.17, 6.62, 6.64, 6.95, 7.27, 6.58, 7.59, 6.95, 6.64, 6.64, 6.98, 7.33, 7.68, 7.68, 6.95, 7.27, 8.15, 8.49, 9.2, 8.8, 8.3, 8.82, 6.42, 4.6, 4.23, 6.7, 8.01, 8.22, 7.65, 8.73, 10.43, 15.36, 16.41, 12.07, 6.4, 9.31, 10.73, 10.17, 11.35, 14.65, 15.96, 15.56, 14.56, 14.18, 14.03, 13.57, 13.56, 15.27, 15.49, 14.3, 14.03, 12.81, 12.45, 10.97, 10.3, 10.3, 11.17, 11.17, 13.82, 13.82, 13.7, 13.5, 13.5, 13.15, 13.57, 13.67, 14.1, 14.53, 14.53, 14.31, 14.73, 14.73, 15.12, 15.12, 14.9, 14.47, 15.07, 16.39, 16.84, 15.95, 15.07, 14.9, 15.98, 16.54, 16.6, 15.8, 14.99, 13.1, 12.63, 10.68, 9.61, 8.94, 8.94, 8.21, 9.16, 8.4, 7.38, 6.97, 6.44, 6.92, 6.62, 6.31, 6.62, 6.23, 8.22, 6.64, 6.32, 6.64, 7.33, 7.68, 7.68, 7.68, 8.03, 8.38, 7.27, 8.22, 9.58, 8.67, 9.39, 7.27, 4.4, 4.4, 6.45, 8.01, 8.3, 5.54, 5.0, 5.98, 8.31, 13.28, 19.99, -10.61, -6.2, 11.2, 12.79, 11.7, 11.16, 14.51, 15.2, 15.3, 14.93, 15.6, 15.27, 14.53, 14.4, 15.05, 15.87, 13.42, 12.39, 9.8, 10.63, 10.99, 10.38, 10.85, 10.94, 10.94, 13.82, 13.82, 13.82, 13.7, 13.5, 13.25, 13.25, 13.67, 14.1, 14.53, 14.61, 14.73, 14.73, 14.84, 14.84, 15.18, 15.38, 14.47, 15.51, 15.95, 16.26, 16.66, 15.78, 14.47, 14.69, 15.69, 16.19, 15.8, 15.14, 13.82, 11.83, 9.94, 8.93, 8.28, 7.98, 7.98, 7.98, 8.65, 7.63, 6.62, 6.17, 6.3, 6.92, 6.92, 5.66, 5.66, 6.87, 6.95, 6.95, 6.95, 7.9, 8.18, 7.68, 6.98, 6.95, 7.27, 6.58, 7.9, 8.59, 8.93, 7.6, 2.17, 4.4, 5.99, 7.73, 8.05, 5.8, 5.8, 5.32, 7.27, 8.93, 20.16, 22.0, 22.35, -17.19, 16.99, 15.93, 13.32, 12.27, 12.52, 14.39, 14.14, 14.75, 15.62, 15.62, 15.16, 14.75, 15.05, 13.02, 10.47, 10.12, 9.48, 10.37, 11.28, 11.04, 11.2, 10.99, 10.99, 13.86, 13.86, 13.82, 13.7, 13.5, 13.5, 13.25, 13.67, 14.1, 14.61, 14.61, 14.31, 14.73, 14.84, 14.93, 14.93, 15.23, 14.94, 14.94, 15.95, 15.82, 16.7, 16.7, 16.05, 15.12, 14.84, 15.77, 15.59, 15.14, 13.46, 11.52, 9.78, 8.68, 8.05, 7.57, 7.98, 7.98, 8.46, 7.74, 6.87, 5.85, 6.3, 6.3, 6.92, 6.62, 6.64, 6.32, 6.65, 6.65, 7.59, 7.23, 8.93, 6.98, 6.98, 6.32, 6.95, 7.27, 5.72, 7.9, 7.68, 6.95, 3.15, 5.29, 7.44, 7.02, 7.34, 5.6, 7.28, 8.22, 10.2, 11.18, 15.43, 20.25, 22.79, 20.75, 20.56, 18.41, 14.57, 12.51, 9.53, 11.52, 13.13, 13.97, 14.75, 15.17, 14.75, 14.3, 13.57, 10.43, 9.49, 11.38, 10.73, 10.66, 11.64, 10.87, 11.2, 10.99, 10.99, 13.86, 13.86, 13.82, 13.7, 13.7, 13.5, 13.5, 13.67, 14.18, 14.18, 14.61, 14.31, 14.73, 14.84, 14.93, 14.93, 15.23, 15.23, 15.38, 15.53, 15.51, 15.82, 16.48, 16.21, 15.79, 14.94, 14.58, 15.19, 15.14, 13.31, 11.52, 9.42, 8.11, 7.4, 7.57, 7.57, 7.98, 8.7, 8.46, 7.63, 6.81, 6.58, 6.3, 6.62, 6.92, 7.27, 6.95, 6.65, 6.92, 7.27, 7.81, 7.59, 8.18, 7.68, 7.68, 6.95, 6.95, 6.32, 7.33, 7.27, 7.27, 6.42, 6.64, 6.7, 5.77, 5.08, 6.4, 8.15, 9.38, 9.85, 10.58, 13.37, 15.52, 18.47, 22.43, 19.27, 20.2, 16.79, 6.34, 5.6, 7.44, 10.75, 12.29, 12.79, 14.55, 15.58, 13.99, 11.64, 9.8, 9.27, 11.25, 11.69, 11.88, 11.44, 10.94, 10.8, 10.73, 10.73, 13.86, 13.86, 13.82, 13.82, 13.7, 13.7, 13.5, 13.55, 13.75, 14.18, 14.61, 14.61, 14.84, 14.42, 14.93, 15.23, 15.23, 15.23, 15.41, 15.53, 15.51, 15.34, 15.55, 15.69, 15.36, 14.99, 14.58, 14.36, 14.29, 12.52, 10.49, 9.42, 8.33, 8.74, 8.51, 8.51, 8.94, 8.94, 9.41, 8.91, 8.87, 7.73, 6.87, 6.62, 6.92, 7.27, 7.27, 6.98, 6.92, 7.23, 7.59, 7.95, 7.95, 7.95, 7.87, 6.64, 7.68, 6.32, 5.69, 6.32, 8.24, 7.4, 7.9, 5.1, 5.4, 4.8, 6.76, 9.48, 9.67, 10.6, 11.27, 11.61, 13.65, 15.41, 15.8, 18.94, 17.17, 17.38, 0.0, -3.56, 1.77, 7.82, 9.31, 11.16, 14.3, 14.66, 14.13, 12.45, 11.64, 10.36, 11.53, 13.03, 13.58, 12.39, 11.75, 10.94, 11.03, 11.03, 13.86, 13.86, 13.86, 13.82, 13.7, 13.7, 13.55, 13.55, 13.99, 13.99, 14.18, 14.61, 14.69, 14.69, 14.75, 14.79, 15.23, 15.27, 15.41, 15.38, 15.51, 15.34, 15.12, 14.84, 14.94, 14.58, 14.2, 13.8, 13.46, 12.63, 10.68, 8.51, 8.74, 8.74, 8.74, 8.94, 8.94, 9.67, 9.67, 9.66, 8.85, 8.3, 7.15, 6.62, 7.27, 6.95, 7.64, 7.31, 7.27, 7.59, 7.59, 7.95, 8.32, 7.96, 8.3, 6.95, 6.64, 6.98, 5.44, 6.32, 7.87, 8.55, 7.27, 5.92, 5.0, 7.54, 9.09, 9.45, 10.05, 12.08, 13.32, 12.71, 12.37, 12.85, 13.01, 14.97, 19.09, 18.72, 18.1, 0.0, -2.28, 5.02, 12.37, 13.75, 13.79, 13.57, 13.38, 13.33, 13.02, 12.07, 12.17, 13.39, 14.39, 13.19, 12.7, 11.99, 11.72, 11.72, 13.86, 13.86, 13.86, 13.82, 13.82, 13.72, 13.55, 13.99, 14.03, 14.03, 14.42, 14.61, 15.12, 15.12, 15.18, 14.79, 14.79, 14.84, 14.99, 14.97, 15.34, 15.3, 15.3, 15.04, 14.53, 14.38, 13.99, 13.8, 13.46, 12.63, 10.68, 8.94, 8.51, 8.94, 8.94, 8.94, 9.61, 10.36, 9.67, 9.92, 9.39, 8.05, 7.36, 6.4, 6.64, 7.31, 8.38, 9.08, 9.08, 7.59, 7.95, 7.95, 7.87, 7.96, 8.3, 7.59, 8.24, 7.27, 6.11, 7.13, 7.96, 7.87, 5.9, 5.92, 6.71, 8.53, 9.3, 9.89, 9.83, 11.11, 12.93, 13.39, 12.2, 12.96, 13.75, 16.54, 18.16, 17.91, 19.26, 20.51, 15.72, 11.33, 15.15, 14.64, 14.9, 13.82, 13.57, 14.31, 14.38, 14.31, 13.35, 13.89, 13.91, 14.47, 14.05, 13.07, 12.37, 12.37, 13.86, 13.86, 13.86, 13.82, 13.82, 13.72, 13.72, 13.99, 14.03, 14.03, 14.03, 14.86, 14.69, 15.12, 15.82, 15.41, 14.97, 14.99, 14.84, 14.97, 15.38, 15.34, 15.3, 15.04, 14.73, 14.38, 13.59, 13.58, 13.54, 12.29, 9.81, 8.7, 8.7, 8.7, 9.61, 10.08, 10.08, 10.08, 10.36, 10.19, 9.66, 8.58, 7.93, 6.95, 5.69, 7.47, 9.16, 10.02, 10.47, 10.12, 9.04, 7.81, 7.87, 7.61, 7.96, 7.97, 7.97, 7.97, 8.15, 7.47, 7.58, 7.13, 6.69, 6.69, 6.69, 6.98, 7.9, 9.27, 9.26, 9.13, 11.18, 11.2, 13.19, 16.22, 6.16, 10.73, 16.91, 16.06, 17.13, 19.25, 19.76, 19.2, 17.34, 16.56, 16.52, 16.66, 15.45, 14.99, 14.99, 14.84, 13.96, 14.36, 14.44, 15.01, 15.08, 14.36, 13.44, 13.44, 13.41, 13.41, 13.86, 13.82, 13.82, 13.72, 13.72, 14.03, 14.03, 14.47, 14.47, 13.99, 14.9, 14.9, 15.38, 15.41, 15.41, 15.41, 15.27, 15.41, 15.38, 15.12, 15.12, 15.04, 14.73, 14.73, 13.97, 12.81, 12.5, 12.02, 10.3, 8.91, 8.46, 9.54, 9.81, 9.81, 10.08, 10.08, 10.59, 10.87, 9.92, 9.62, 8.21, 7.59, 6.32, 7.81, 9.84, 11.17, 11.07, 10.85, 9.4, 7.59, 7.59, 7.27, 7.61, 7.64, 7.97, 8.31, 8.38, 8.58, 7.64, 7.13, 7.81, 7.27, 6.01, 6.01, 6.4, 8.82, 8.59, 9.2, 8.18, 8.49, 12.86, 16.34, 16.74, 1.66, 9.09, 14.11, 15.2, 18.57, 20.86, 20.12, 17.39, 16.89, 18.43, 19.55, 18.48, 15.93, 14.67, 14.22, 13.77, 14.22, 14.22, 14.66, 14.99, 14.97, 14.06, 14.06, 13.41, 13.41, 13.38, 13.82, 13.82, 13.72, 13.72, 14.03, 14.03, 14.47, 14.47, 14.42, 14.42, 15.34, 15.38, 15.38, 15.38, 15.85, 15.67, 15.67, 15.61, 15.61, 14.84, 14.84, 14.73, 14.38, 13.97, 12.18, 13.18, 10.92, 9.39, 9.16, 9.81, 9.54, 9.54, 9.81, 10.3, 10.59, 10.59, 10.59, 11.13, 10.52, 9.8, 7.9, 7.64, 9.04, 10.48, 11.93, 11.21, 10.12, 8.32, 7.23, 7.23, 7.23, 7.33, 7.68, 8.03, 8.38, 8.38, 8.73, 8.58, 7.51, 7.28, 6.87, 6.32, 6.01, 6.64, 7.27, 8.82, 8.73, 8.0, 9.45, 11.87, 15.44, 20.4, -3.6, -2.05, 10.47, 14.51, 16.09, 18.44, 17.98, 16.25, 16.04, 18.0, 19.87, 19.59, 17.14, 15.09, 13.38, 12.96, 13.41, 13.83, 14.21, 14.66, 14.65, 14.06, 14.06, 13.41, 13.41, 13.38, 13.82, 13.82, 13.72, 13.72, 14.18, 14.18, 14.62, 14.42, 14.42, 14.42, 14.62, 15.51, 15.38, 15.38, 15.38, 15.18, 15.67, 15.44, 15.36, 15.07, 14.53, 14.11, 13.59, 13.59, 12.18, 11.39, 11.69, 8.85, 9.39, 9.81, 10.3, 10.3, 10.3, 10.3, 10.59, 10.59, 11.13, 11.13, 11.38, 10.12, 8.97, 8.38, 9.4, 10.48, 11.21, 11.21, 9.81, 7.92, 7.54, 7.23, 6.98, 7.33, 7.68, 7.31, 8.03, 8.38, 9.04, 8.68, 7.28, 7.33, 6.18, 6.52, 6.95, 6.95, 6.98, 8.8, 9.6, 9.36, 10.68, 11.58, 14.3, 18.93, 24.72, 0.0, 13.57, 14.75, 16.09, 16.76, 16.0, 15.44, 15.94, 16.52, 17.95, 18.41, 17.05, 15.54, 13.81, 13.41, 13.41, 13.82, 14.18, 14.06, 14.42, 14.03, 14.03, 13.41, 13.41, 13.38, 13.38, 13.82, 13.72, 13.74, 14.18, 14.18, 14.6, 14.6, 15.05, 14.6, 14.62, 15.07, 15.34, 15.34, 15.38, 15.18, 15.36, 15.07, 15.6, 14.74, 14.74, 13.77, 13.41, 13.2, 12.13, 11.69, 10.43, 9.44, 9.12, 10.02, 10.02, 10.3, 10.3, 10.3, 10.3, 11.13, 11.13, 11.7, 11.7, 11.3, 9.64, 9.4, 9.4, 10.56, 11.69, 11.35, 9.89, 8.3, 7.92, 7.59, 7.33, 7.68, 7.31, 7.64, 7.64, 7.64, 8.3, 8.93, 7.68, 6.98, 7.33, 6.01, 6.95, 7.59, 7.56, 8.4, 9.63, 10.32, 11.28, 12.07, 13.38, 17.76, 22.99, 21.24, 18.78, 16.09, 15.62, 16.0, 15.45, 16.31, 16.76, 16.78, 17.22, 17.6, 16.24, 15.82, 14.66, 13.86, 13.72, 13.34, 13.72, 14.19, 14.31, 13.88, 13.88, 13.41, 13.41, 13.38, 13.38, 13.82, 13.74, 13.74, 14.18, 14.62, 14.6, 15.05, 15.05, 15.16, 14.71, 14.6, 14.9, 14.9, 14.94, 14.75, 14.93, 15.07, 14.74, 14.56, 14.39, 13.99, 13.03, 12.79, 12.13, 11.33, 10.75, 9.73, 9.73, 9.73, 9.73, 10.02, 10.02, 10.3, 10.83, 11.13, 11.7, 11.7, 11.38, 11.3, 10.47, 9.76, 9.81, 10.56, 11.31, 10.99, 10.62, 8.79, 8.42, 8.06, 7.68, 7.68, 7.31, 7.64, 7.96, 8.32, 9.4, 9.08, 8.93, 7.33, 7.33, 6.95, 7.27, 7.21, 8.15, 8.48, 9.92, 10.68, 11.62, 12.66, 13.37, 15.6, 16.96, 18.72, 19.29, 19.67, 17.43, 15.18, 15.99, 16.44, 16.43, 15.98, 15.96, 15.87, 16.29, 15.43, 15.08, 14.3, 13.86, 13.86, 13.41, 13.86, 13.86, 14.09, 14.09, 13.41, 13.41, 13.38, 13.38, 13.83, 13.83, 14.27, 14.27, 14.6, 14.6, 15.16, 15.16, 15.16, 14.58, 14.58, 15.05, 14.9, 14.75, 14.75, 14.84, 14.53, 14.74, 14.56, 14.22, 13.64, 13.03, 12.37, 11.69, 10.87, 10.75, 9.73, 9.73, 9.44, 9.92, 9.92, 10.22, 10.52, 10.52, 11.38, 11.38, 11.38, 11.96, 11.63, 10.99, 9.89, 9.81, 10.18, 10.62, 10.99, 10.62, 9.52, 8.42, 8.06, 7.68, 7.31, 7.31, 7.64, 8.32, 8.32, 9.4, 9.42, 8.73, 8.03, 6.87, 7.21, 8.23, 7.6, 8.17, 8.89, 9.34, 10.46, 10.0, 12.62, 13.39, 14.68, 15.04, 14.95, 18.08, 20.3, 22.64, 19.09, 15.38, 14.5, 14.03, 14.5, 15.38, 16.26, 16.22, 15.87, 15.11, 14.75, 14.3, 13.75, 13.81, 13.83, 13.83, 13.84, 13.84, 12.96, 12.96, 13.41, 13.41, 13.83, 13.83, 14.27, 14.27, 14.71, 14.71, 15.16, 15.16, 15.02, 15.02, 14.58, 14.58, 14.69, 14.51, 14.51, 14.84, 14.53, 14.18, 14.39, 14.03, 13.27, 12.65, 12.37, 11.69, 10.87, 10.75, 9.73, 9.73, 9.92, 9.92, 9.92, 9.92, 10.43, 10.75, 11.06, 11.96, 11.96, 12.57, 11.87, 10.55, 8.82, 9.2, 9.97, 10.73, 10.62, 10.62, 9.89, 9.16, 8.42, 7.68, 7.31, 7.68, 8.03, 8.32, 8.68, 8.73, 9.42, 9.02, 8.03, 7.56, 7.21, 8.43, 7.47, 8.17, 8.67, 8.79, 8.99, 9.81, 12.62, 14.86, 16.7, 14.75, 14.75, 17.05, 20.07, 22.19, 19.79, 16.0, 15.69, 15.79, 15.36, 16.37, 16.86, 16.73, 16.39, 15.65, 14.64, 14.47, 13.75, 13.8, 13.94, 12.71, 12.74, 13.39, 12.96, 12.96, 13.41, 13.41, 13.86, 13.86, 14.27, 14.27, 14.72, 14.71, 15.16, 15.16, 15.02, 15.02, 15.02, 14.58, 14.42, 14.23, 14.23, 14.33, 14.53, 14.18, 13.81, 13.8, 13.02, 12.26, 11.9, 11.26, 10.87, 10.43, 10.75, 10.43, 9.92, 10.43, 10.43, 10.43, 10.12, 11.3, 11.3, 11.63, 12.22, 12.57, 11.52, 10.24, 8.43, 9.2, 9.97, 10.73, 10.99, 10.62, 10.25, 9.52, 8.38, 7.68, 7.68, 7.68, 8.03, 8.32, 9.04, 8.73, 9.42, 9.02, 8.73, 8.18, 7.44, 7.67, 7.67, 8.22, 8.8, 8.8, 8.72, 10.09, 11.99, 14.71, 17.77, 19.67, 6.4, 14.71, 19.22, 19.95, 16.39, 14.67, 16.53, 16.67, 16.78, 17.19, 17.68, 17.97, 17.33, 16.09, 15.14, 13.19, 12.65, 13.07, 11.87, 11.79, 11.87, 12.74, 12.96, 12.96, 12.96, 13.41, 13.86, 13.86, 14.3, 14.3, 14.75, 14.71, 15.16, 15.16, 15.15, 15.15, 15.02, 14.37, 14.18, 13.89, 13.92, 13.59, 14.33, 14.18, 13.99, 13.58, 13.16, 12.26, 11.9, 11.6, 10.54, 10.12, 10.43, 10.92, 10.92, 10.97, 10.63, 10.97, 10.63, 10.63, 11.3, 11.87, 12.22, 12.22, 11.52, 9.89, 9.1, 9.89, 11.88, 11.29, 11.72, 11.35, 10.62, 9.89, 8.38, 8.03, 7.68, 8.06, 8.42, 8.79, 9.43, 9.16, 9.42, 9.42, 7.41, 8.43, 8.05, 8.05, 7.6, 7.76, 8.8, 9.2, 9.2, 8.99, 11.03, 12.95, 14.85, 19.19, 7.07, 2.12, 13.59, 13.99, 12.35, 14.79, 16.67, 16.88, 16.96, 17.68, 18.35, 18.47, 17.79, 16.54, 15.15, 13.97, 12.27, 11.2, 11.2, 10.99, 10.96, 11.87, 12.96, 12.96, 12.96, 13.41, 13.41, 13.86, 13.86, 14.3, 14.3, 14.75, 14.71, 14.71, 15.16, 15.02, 14.37, 14.1, 13.89, 13.56, 13.19, 13.59, 13.59, 13.41, 13.2, 13.58, 12.86, 12.73, 11.6, 11.25, 10.92, 10.54, 10.12, 10.92, 10.92, 11.42, 10.63, 10.63, 10.63, 10.82, 11.17, 11.52, 11.52, 11.87, 11.72, 10.25, 9.52, 10.55, 12.45, 12.82, 12.09, 11.72, 11.35, 10.25, 8.02, 7.68, 8.06, 8.06, 8.42, 8.79, 8.79, 9.16, 9.89, 9.53, 9.77, 8.43, 7.51, 8.05, 7.89, 8.72, 8.22, 8.8, 8.72, 8.72, 9.32, 10.55, 12.82, 15.38, 21.17, -6.4, -11.4, 13.91, 12.87, 15.41, 18.26, 17.81, 16.76, 17.44, 18.14, 18.24, 17.41, 16.54, 15.2, 13.96, 10.73, 10.61, 11.2, 10.99, 10.6, 10.6, 12.52, 12.52, 12.96, 12.96, 13.41, 13.41, 13.86, 14.3, 14.3, 14.27, 14.71, 14.6, 14.6, 14.42, 14.18, 13.89, 13.56, 13.56, 13.19, 13.19, 13.25, 13.25, 13.03, 13.2, 12.94, 12.5, 12.0, 11.25, 10.92, 10.22, 10.22, 10.65, 10.99, 10.58, 11.07, 10.3, 10.3, 10.47, 10.82, 11.17, 11.17, 11.72, 11.35, 10.25, 9.89, 11.31, 12.09, 12.45, 11.72, 11.35, 10.99, 9.53, 7.76, 7.69, 8.06, 8.06, 8.79, 8.79, 9.16, 9.16, 9.52, 9.89, 9.67, 8.82, 7.87, 7.51, 8.05, 8.72, 7.44, 8.54, 8.34, 7.96, 9.86, 9.42, 11.16, 13.95, 16.8, 23.15, 23.8, 18.65, 19.85, 20.57, 20.54, 19.33, 16.82, 17.53, 17.35, 17.43, 16.54, 15.65, 14.75, 13.34, 11.5, 10.61, 10.35, 10.35, 10.35, 10.35, 12.52, 12.52, 12.96, 12.96, 13.41, 13.41, 13.86, 13.86, 13.86, 14.27, 14.27, 14.6, 14.18, 13.99, 13.7, 13.37, 13.37, 13.19, 13.19, 13.02, 13.41, 13.03, 13.03, 12.79, 12.79, 12.5, 11.69, 11.34, 10.58, 10.22, 10.3, 10.3, 10.3, 10.25, 10.58, 9.97, 9.97, 10.47, 10.47, 10.99, 11.35, 11.35, 10.99, 9.89, 9.52, 10.62, 11.72, 11.72, 10.99, 10.25, 9.53, 8.82, 7.41, 7.69, 8.06, 8.06, 8.79, 8.79, 9.16, 9.16, 9.52, 9.89, 10.04, 10.35, 8.23, 7.87, 8.05, 8.43, 7.81, 8.54, 8.4, 8.0, 8.6, 10.2, 10.43, 11.66, 14.88, 17.62, 20.09, 21.33, 22.32, 22.94, 24.42, 22.76, 19.17, 17.91, 17.7, 16.99, 15.62, 14.3, 13.41, 12.86, 11.09, 9.42, 9.53, 10.04, 10.04, 10.04, 12.52, 12.52, 12.96, 12.96, 13.41, 13.41, 13.86, 13.86, 14.3, 14.27, 14.27, 14.42, 13.99, 13.37, 13.19, 12.86, 12.65, 13.02, 12.81, 13.37, 13.41, 13.41, 12.79, 12.37, 12.37, 12.05, 11.69, 11.34, 10.65, 10.3, 10.3, 10.3, 9.92, 9.92, 9.92, 10.38, 10.03, 10.47, 10.99, 10.99, 10.99, 10.99, 10.23, 9.52, 9.16, 9.89, 11.5, 11.5, 10.99, 9.89, 9.16, 8.12, 7.06, 7.69, 8.06, 8.42, 8.82, 9.2, 9.58, 9.58, 9.16, 9.97, 10.35, 9.67, 10.35, 7.87, 8.05, 7.76, 8.15, 8.63, 9.13, 7.64, 8.23, 9.52, 10.43, 11.02, 12.79, 14.46, 15.38, 15.36, 18.09, 23.65, 25.34, 24.01, 20.27, 18.88, 18.54, 16.97, 14.75, 12.52, 12.96, 9.42, 8.85, 7.73, 8.01, 8.01, 8.01, 8.01, 12.49, 12.49, 12.94, 12.94, 12.94, 13.41, 13.41, 13.86, 14.3, 14.3, 14.27, 13.99, 13.56, 13.02, 12.86, 12.51, 12.51, 12.65, 12.65, 13.02, 12.81, 13.2, 13.2, 12.79, 12.37, 11.6, 11.26, 10.92, 10.65, 10.65, 10.3, 9.96, 9.59, 9.59, 9.59, 10.03, 10.03, 10.48, 11.31, 10.62, 10.12, 10.12, 9.69, 9.08, 9.16, 9.89, 10.62, 10.62, 10.62, 9.89, 9.58, 8.18, 7.06, 7.41, 8.06, 8.43, 8.82, 9.2, 9.58, 9.58, 9.58, 9.58, 10.04, 10.04, 8.94, 8.82, 8.72, 7.81, 8.63, 8.63, 7.81, 7.27, 8.15, 9.58, 11.14, 11.68, 12.33, 13.02, 12.73, 12.81, 15.95, 20.45, 24.03, 22.12, 21.32, 21.52, 18.56, 16.48, 12.92, 12.58, 12.52, 11.2, 8.53, 5.4, 5.8, 4.1, 4.1, 4.1, 12.49, 12.49, 12.94, 12.94, 13.41, 13.41, 13.41, 13.86, 13.86, 14.3, 14.27, 13.99, 13.56, 12.81, 12.65, 12.65, 12.27, 12.27, 12.27, 12.65, 12.41, 13.2, 12.5, 12.5, 12.05, 11.6, 11.26, 10.92, 10.22, 10.22, 10.3, 9.96, 9.59, 9.26, 9.26, 9.69, 10.01, 10.12, 10.48, 10.12, 10.12, 10.12, 10.12, 9.42, 9.16, 9.89, 10.25, 10.25, 10.25, 9.97, 9.2, 8.43, 7.44, 7.81, 8.43, 8.43, 8.82, 9.2, 9.58, 9.58, 9.2, 9.58, 9.67, 10.04, 9.3, 8.82, 8.0, 8.3, 8.43, 7.9, 6.95, 7.27, 9.1, 10.38, 10.92, 11.14, 11.6, 12.18, 11.69, 10.87, 13.65, 18.6, 21.95, 22.63, 22.79, 22.14, 18.19, 14.66, 11.6, 3.82, 8.85, 5.6, 6.7, 8.22, 9.17, 11.6, 11.6, 11.6, 12.49, 12.49, 12.94, 12.96, 12.96, 13.41, 13.86, 13.86, 13.86, 13.83, 14.18, 13.75, 13.15, 13.19, 12.81, 12.65, 12.65, 12.65, 12.65, 11.9, 11.9, 12.0, 12.05, 12.05, 11.68, 11.68, 11.69, 10.92, 10.22, 10.65, 10.3, 10.3, 9.59, 9.69, 9.69, 9.34, 9.66, 10.01, 9.69, 9.3, 9.3, 9.77, 9.77, 9.89, 9.43, 10.18, 10.25, 10.25, 10.35, 9.81, 9.2, 8.82, 7.81, 7.44, 8.05, 8.43, 8.82, 8.82, 9.2, 9.2, 8.93, 9.2, 9.67, 10.55, 9.86, 9.2, 8.72, 8.72, 9.13, 9.04, 9.45, 8.93, 10.18, 10.7, 10.79, 10.8, 10.56, 10.85, 10.99, 10.99, 11.2, 16.17, 17.94, 20.85, 22.59, 23.48, 18.88, 12.51, 3.96, 7.24, 8.53, 8.22, 6.97, 7.24, 7.78, 9.17, 9.17, 9.17, 12.49, 12.49, 12.94, 12.94, 12.96, 13.41, 13.86, 13.86, 13.83, 14.18, 14.03, 13.57, 13.56, 13.19, 12.81, 13.02, 13.02, 12.81, 12.41, 12.41, 12.41, 12.0, 12.05, 12.05, 11.68, 11.33, 11.33, 10.99, 10.65, 10.3, 10.3, 10.3, 10.03, 9.69, 10.12, 9.76, 10.04, 9.76, 9.34, 10.12, 9.77, 9.77, 10.25, 9.89, 9.81, 10.56, 10.62, 10.73, 10.2, 9.42, 9.03, 8.43, 8.18, 7.81, 8.05, 8.43, 8.43, 8.82, 8.82, 8.93, 8.93, 8.93, 9.77, 10.55, 9.86, 8.93, 8.54, 8.15, 9.21, 9.11, 9.46, 9.46, 9.63, 10.21, 10.16, 9.53, 9.88, 9.64, 10.25, 10.99, 10.65, 12.63, 15.17, 17.58, 22.84, 25.2, 11.44, 2.54, 5.16, 8.21, 9.02, 7.54, 7.51, 7.19, 8.38, 8.1, 8.1, 8.1, 12.49, 12.49, 12.94, 12.94, 12.94, 13.41, 13.86, 13.86, 13.83, 14.19, 13.88, 13.57, 13.19, 12.81, 12.81, 13.02, 12.81, 12.81, 12.81, 12.41, 12.41, 12.0, 12.05, 12.05, 11.33, 11.8, 11.8, 11.44, 11.09, 11.09, 10.73, 10.73, 10.37, 10.41, 10.12, 10.18, 10.18, 9.76, 9.76, 9.76, 9.89, 9.89, 9.89, 9.89, 9.89, 10.25, 11.12, 10.73, 10.58, 9.77, 8.82, 8.43, 7.76, 7.44, 8.05, 8.05, 8.43, 8.8, 8.8, 8.99, 8.99, 8.99, 9.38, 10.16, 10.24, 9.67, 8.93, 8.8, 9.4, 8.8, 8.54, 9.04, 9.29, 10.05, 9.48, 9.53, 9.36, 8.85, 9.97, 10.3, 10.73, 9.92, 11.91, 16.58, 24.58, 22.05, 11.38, 1.38, 4.24, 8.51, 9.21, 8.05, 7.11, 7.1, 7.79, 8.3, 8.3, 8.3, 12.49, 12.49, 12.5, 12.94, 12.94, 12.96, 13.41, 13.83, 13.75, 14.06, 13.88, 13.7, 13.37, 13.37, 13.37, 13.37, 13.19, 13.19, 12.81, 12.81, 12.81, 12.13, 12.13, 12.13, 12.13, 11.8, 11.8, 11.44, 11.09, 11.09, 10.73, 10.73, 10.79, 10.79, 10.81, 10.18, 10.18, 9.81, 9.81, 9.81, 9.89, 9.89, 9.89, 9.52, 10.35, 10.73, 11.12, 11.39, 10.99, 10.17, 8.82, 7.76, 7.76, 7.44, 8.05, 8.05, 8.4, 8.8, 8.8, 8.8, 8.99, 8.99, 9.38, 9.77, 10.55, 10.16, 9.86, 9.2, 8.72, 7.27, 8.23, 9.4, 9.04, 8.43, 8.73, 8.22, 8.53, 9.36, 9.77, 10.12, 10.79, 10.48, 11.21, 16.44, 29.03, 21.29, 11.58, -2.43, -0.0, 5.63, 7.59, 7.68, 6.4, 6.73, 8.05, 9.48, 9.48, 9.48, 12.5, 12.5, 12.5, 12.94, 12.96, 12.96, 13.41, 13.83, 13.75, 14.06, 13.65, 13.7, 13.37, 13.37, 13.37, 13.37, 13.19, 13.19, 12.99, 12.56, 12.56, 12.56, 12.13, 12.13, 12.13, 12.13, 11.9, 11.9, 11.53, 11.16, 11.16, 10.79, 10.79, 10.79, 10.81, 10.43, 10.18, 9.81, 10.2, 10.2, 9.97, 9.97, 9.97, 9.97, 9.97, 10.2, 10.99, 10.99, 10.99, 9.58, 8.93, 8.12, 7.76, 7.81, 7.67, 8.0, 8.4, 8.4, 8.4, 8.8, 8.8, 8.99, 8.99, 9.77, 10.4, 10.8, 10.48, 9.09, 7.81, 7.4, 8.18, 8.55, 8.58, 6.87, 6.42, 6.5, 8.22, 9.89, 10.2, 10.2, 10.18, 10.79, 12.6, 24.69, 29.44, 19.93, 6.47, -11.88, -6.67, -0.0, 4.34, 6.6, 7.92, 8.2, 9.13, 9.8, 9.8, 9.8, 12.5, 12.5, 12.5, 12.52, 12.96, 12.96, 13.39, 13.31, 13.62, 13.44, 13.65, 13.28, 13.37, 13.37, 13.7, 13.7, 13.56, 12.99, 12.99, 13.38, 12.56, 12.56, 12.56, 12.56, 12.56, 12.18, 11.9, 11.9, 11.53, 11.58, 11.58, 11.2, 11.2, 10.81, 10.81, 10.43, 10.18, 9.81, 10.2, 9.81, 10.2, 9.97, 9.97, 9.97, 10.17, 10.17, 10.58, 10.58, 9.97, 9.3, 8.47, 8.12, 8.18, 8.6, 8.4, 8.0, 8.0, 8.0, 8.4, 8.4, 8.4, 8.6, 8.99, 9.38, 10.0, 10.4, 10.35, 8.82, 8.37, 8.34, 8.6, 8.23, 8.07, 6.98, 7.15, 6.5, 7.9, 9.52, 9.81, 8.79, 9.16, 10.41, 20.23, 23.09, 28.41, 19.01, -16.12, -13.44, -6.0, -0.0, 4.05, 6.94, 8.68, 8.94, 10.12, 10.77, 10.77, 10.77, 12.5, 12.5, 12.52, 12.52, 12.52, 12.94, 13.31, 13.62, 13.44, 13.23, 12.98, 13.39, 13.52, 13.81, 13.81, 13.7, 13.56, 13.39, 12.99, 13.38, 12.94, 12.56, 12.56, 12.56, 12.18, 12.6, 12.36, 11.97, 11.97, 11.58, 11.58, 11.6, 11.6, 11.2, 11.2, 10.8, 10.8, 10.2, 10.2, 9.81, 9.81, 10.2, 10.2, 10.17, 10.17, 9.77, 9.42, 9.2, 8.79, 8.47, 8.47, 8.55, 8.6, 8.8, 8.8, 8.4, 8.3, 8.3, 8.3, 8.4, 8.4, 8.21, 8.6, 8.99, 10.0, 10.4, 9.97, 8.82, 8.73, 8.8, 8.34, 8.72, 8.72, 8.15, 6.87, 7.27, 7.27, 8.82, 9.04, 9.04, 9.08, 9.34, 17.59, 23.19, 27.53, 20.0, -15.65, -12.56, -5.15, -0.0, 4.96, 7.98, 9.12, 10.43, 10.69, 11.9, 11.9, 11.9, 12.5, 12.5, 12.52, 12.52, 12.52, 12.5, 12.86, 13.18, 13.01, 12.8, 12.98, 13.39, 13.39, 13.81, 13.81, 13.7, 13.56, 13.39, 12.99, 13.38, 13.38, 13.38, 13.38, 12.99, 12.6, 12.6, 12.6, 12.2, 12.58, 12.18, 11.6, 11.6, 11.2, 11.2, 11.2, 10.8, 10.8, 10.2, 9.81, 9.81, 9.81, 10.17, 10.17, 10.17, 9.77, 9.42, 9.2, 8.79, 8.42, 8.12, 8.55, 8.55, 8.99, 8.8, 8.8, 8.72, 8.72, 8.3, 8.3, 8.0, 8.4, 8.4, 8.99, 9.4, 9.8, 10.0, 9.3, 9.3, 8.55, 8.54, 9.2, 9.2, 9.6, 8.59, 8.59, 8.03, 8.18, 8.23, 8.79, 8.38, 8.73, 11.64, 14.22, 21.79, 26.21, 30.22, 15.96, -4.1, -2.72, -0.0, 4.81, 8.65, 11.06, 11.76, 12.09, 11.72, 11.72, 11.72, 12.52, 12.52, 12.52, 12.52, 12.94, 12.86, 12.74, 12.74, 13.01, 13.01, 12.98, 13.39, 13.11, 13.81, 13.81, 13.7, 13.56, 13.39, 13.19, 13.19, 13.59, 13.59, 13.8, 13.39, 12.99, 12.99, 12.99, 12.58, 12.18, 12.18, 12.1, 11.55, 11.55, 11.55, 11.14, 11.14, 11.14, 10.73, 10.58, 10.17, 10.17, 10.17, 10.17, 9.81, 9.42, 8.79, 8.79, 8.42, 8.42, 8.82, 8.82, 9.2, 9.2, 8.8, 9.13, 9.13, 8.72, 8.3, 8.3, 8.3, 8.3, 8.72, 8.99, 9.4, 9.4, 9.8, 9.38, 9.38, 8.55, 8.93, 9.2, 9.6, 8.73, 8.59, 8.73, 8.37, 8.18, 8.54, 8.72, 8.47, 9.81, 10.96, 13.39, 17.98, 24.0, 29.8, 25.81, 12.29, 5.48, 4.81, 6.17, 9.49, 11.58, 12.65, 12.45, 12.45, 12.45, 12.45, 12.52, 12.52, 12.52, 12.5, 12.87, 12.86, 12.74, 13.18, 13.01, 12.8, 12.98, 12.7, 13.11, 13.52, 13.52, 13.52, 13.37, 13.19, 13.39, 13.59, 13.59, 13.59, 14.03, 13.39, 12.99, 12.99, 12.93, 12.93, 12.52, 12.1, 12.1, 11.68, 11.55, 11.27, 11.27, 11.14, 10.73, 10.73, 10.73, 10.17, 10.17, 9.81, 9.81, 9.05, 9.05, 8.79, 8.79, 8.42, 8.82, 8.82, 8.82, 8.8, 9.2, 8.8, 9.13, 9.13, 8.72, 8.72, 8.3, 7.89, 8.56, 8.56, 8.99, 9.33, 8.99, 8.99, 8.99, 8.99, 8.99, 9.32, 9.6, 9.32, 8.73, 8.59, 8.73, 8.37, 8.0, 7.81, 8.0, 9.77, 10.6, 11.36, 13.62, 16.78, 21.63, 23.85, 23.2, 17.66, 11.58, 10.39, 10.18, 10.75, 12.82, 13.2, 13.34, 13.19, 13.19, 13.19, 12.52, 12.52, 12.52, 12.5, 12.87, 12.87, 12.77, 13.05, 13.05, 12.8, 12.98, 12.7, 13.11, 13.11, 13.52, 13.11, 12.96, 13.19, 12.99, 13.39, 14.19, 14.19, 14.03, 14.19, 13.35, 12.93, 12.93, 12.93, 12.52, 12.1, 12.1, 11.68, 11.68, 11.27, 11.27, 11.27, 11.14, 10.73, 10.73, 10.0, 9.81, 9.81, 9.05, 9.05, 9.05, 9.42, 9.03, 9.03, 9.03, 9.03, 9.03, 8.95, 8.8, 8.8, 9.13, 8.72, 8.72, 8.72, 8.99, 8.56, 8.14, 8.14, 8.56, 8.56, 8.99, 8.72, 8.99, 8.6, 8.6, 8.99, 8.6, 9.32, 9.32, 8.55, 8.55, 8.93, 8.93, 9.04, 9.54, 10.35, 10.84, 11.36, 13.15, 16.31, 20.05, 21.29, 20.58, 17.82, 15.59, 12.8, 12.11, 13.27, 13.99, 14.65, 14.24, 14.44, 14.44, 14.44, 12.52, 12.52, 12.5, 12.43, 12.43, 12.77, 12.77, 12.62, 12.87, 12.56, 12.7, 12.7, 13.11, 13.11, 13.11, 12.79, 12.79, 12.96, 13.19, 13.56, 13.77, 14.19, 14.53, 14.1, 13.35, 12.93, 12.93, 12.52, 12.52, 12.1, 12.1, 11.68, 11.27, 11.27, 11.27, 11.27, 11.27, 10.4, 10.4, 10.4, 9.43, 9.43, 9.81, 9.42, 9.42, 9.42, 9.03, 9.03, 9.03, 9.03, 8.95, 8.95, 9.24, 9.13, 9.13, 8.72, 8.99, 8.56, 9.21, 8.77, 8.77, 8.33, 8.33, 8.56, 8.56, 8.72, 8.72, 8.4, 8.21, 8.99, 8.6, 9.7, 9.7, 9.58, 8.8, 9.45, 9.45, 9.63, 9.63, 10.18, 10.84, 11.54, 12.96, 15.51, 19.08, 20.4, 18.02, 16.74, 15.28, 14.88, 13.95, 14.46, 15.11, 15.96, 16.12, 15.04, 15.04, 15.04, 12.5, 12.5, 12.94, 12.87, 12.79, 12.79, 12.66, 12.49, 12.22, 12.29, 12.29, 12.7, 13.11, 13.11, 13.11, 13.11, 13.11, 13.11, 12.96, 13.37, 13.56, 13.77, 13.77, 13.77, 13.35, 12.93, 12.93, 12.52, 12.52, 12.1, 12.1, 11.68, 11.27, 11.27, 11.27, 10.55, 10.55, 10.4, 10.4, 10.0, 10.0, 10.0, 10.0, 9.6, 9.42, 9.42, 9.42, 9.36, 9.36, 9.36, 9.24, 9.24, 9.24, 9.49, 8.99, 8.99, 9.21, 8.77, 8.77, 8.77, 8.77, 8.33, 8.33, 8.14, 8.56, 8.3, 8.3, 8.4, 8.4, 8.21, 8.99, 8.99, 8.99, 10.79, 9.2, 9.45, 9.45, 9.2, 9.2, 9.8, 10.5, 11.11, 12.3, 14.33, 17.72, 18.97, 17.63, 16.89, 15.47, 14.88, 13.59, 14.57, 15.77, 16.66, 16.27, 15.39, 15.39, 15.39, 12.5, 12.5, 12.94, 12.87, 12.79, 12.79, 12.66, 12.49, 12.22, 12.29, 12.29, 12.7, 13.11, 13.11, 13.11, 13.11, 13.11, 13.11, 12.96, 13.37, 13.56, 13.77, 13.77, 13.77, 13.35, 12.93, 12.93, 12.52, 12.52, 12.1, 12.1, 11.68, 11.27, 11.27, 11.27, 10.55, 10.55, 10.4, 10.4, 10.0, 10.0, 10.0, 10.0, 9.6, 9.42, 9.42, 9.42, 9.36, 9.36, 9.36, 9.24, 9.24, 9.24, 9.49, 8.99, 8.99, 9.21, 8.77, 8.77, 8.77, 8.77, 8.33, 8.33, 8.14, 8.56, 8.3, 8.3, 8.4, 8.4, 8.21, 8.99, 8.99, 8.99, 10.79, 9.2, 9.45, 8.93, 9.2, 9.2, 9.8, 10.5, 10.32, 11.37, 13.28, 15.37, 17.19, 17.11, 16.31, 15.98, 15.01, 14.42, 14.33, 15.7, 16.74, 16.05, 15.55, 15.55, 15.55]}, {"header": {"dx": 0.06612293990616946, "dy": 0.0552356325346848, "nx": 98, "ny": 59, "la1": 35.046912555036876, "la2": 31.78801023549047, "lo1": -121.43107172385933, "lo2": -114.95102361305473, "refTime": "2026041303", "parameterCategory": 1, "parameterNumber": 3}, "data": [2.24, 3.32, 5.3, 6.6, 7.43, 8.68, 9.34, 9.92, 9.92, 9.44, 8.31, 7.36, 8.15, 6.98, 6.42, 6.7, 7.59, 8.24, 9.58, 9.58, 9.08, 10.04, 8.49, 7.27, 7.56, 7.85, 8.53, 9.36, 9.02, 9.53, 9.3, 9.27, 8.53, 0.0, -1.76, -2.97, -7.27, -8.0, -4.22, -0.0, 7.6, 8.8, 10.4, 11.12, 10.12, 9.39, 10.7, 11.73, 11.45, 10.77, 11.06, 10.47, 10.47, 9.91, 9.91, 9.12, 9.39, 9.39, 8.18, 8.18, 7.21, 7.21, 6.2, 5.36, 7.43, 10.02, 12.65, 13.39, 13.01, 12.46, 11.63, 11.06, 10.77, 9.99, 8.78, 7.12, 5.56, 3.9, 2.97, 3.22, 3.14, 4.15, 0.0, 0.0, 10.73, 13.7, 13.37, 12.85, 12.66, 12.11, 10.52, 9.8, 8.51, 7.93, 7.36, 8.18, 7.93, 8.05, 3.22, 4.34, 5.3, 6.6, 7.43, 8.68, 9.62, 9.62, 9.92, 9.44, 8.05, 8.54, 7.44, 7.59, 8.22, 7.9, 8.03, 9.3, 9.58, 8.93, 10.8, 10.04, 10.04, 9.62, 7.9, 7.9, 7.9, 8.82, 9.67, 10.35, 11.6, 11.6, 12.18, 10.04, -9.83, -7.6, -4.46, -1.95, -0.0, 8.94, 9.7, 11.03, 12.04, 10.99, 11.7, 10.98, 11.28, 11.73, 11.36, 10.17, 10.17, 9.49, 8.94, 8.85, 8.85, 9.62, 9.12, 9.12, 7.73, 7.73, 6.78, 6.2, 5.36, 6.3, 9.76, 12.09, 13.2, 13.02, 12.65, 11.96, 11.7, 9.88, 9.23, 8.64, 7.12, 5.56, 4.42, 3.9, 2.97, 3.22, 3.14, 4.15, 0.0, 0.0, 10.73, 13.7, 13.37, 12.85, 12.66, 12.11, 10.52, 9.8, 8.51, 7.93, 7.36, 8.18, 7.93, 8.05, 3.22, 4.34, 5.3, 6.6, 7.43, 8.68, 9.62, 9.62, 10.22, 8.58, 7.51, 6.51, 7.44, 8.22, 8.24, 8.24, 8.73, 8.73, 10.0, 11.2, 10.0, 10.4, 9.67, 10.19, 10.52, 8.75, 9.09, 8.93, 9.45, 10.7, 12.39, 13.65, 13.49, 12.88, 9.83, -0.0, 2.54, 8.0, 9.39, 10.2, 11.13, 12.87, 12.87, 12.64, 11.8, 11.16, 12.35, 11.25, 8.94, 9.22, 9.49, 8.68, 8.68, 8.68, 9.06, 9.62, 9.62, 8.43, 7.73, 6.99, 6.78, 5.55, 6.3, 8.73, 12.27, 12.45, 13.51, 13.02, 12.87, 11.38, 10.33, 8.74, 7.0, 6.47, 5.23, 3.37, 3.28, 3.07, 2.64, 2.28, 3.44, 2.28, 0.0, 9.17, 13.31, 14.14, 13.07, 13.37, 12.66, 11.53, 9.13, 8.58, 6.51, 6.2, 6.2, 6.2, 6.51, 7.11, 3.22, 4.21, 5.3, 6.6, 7.43, 7.43, 8.94, 9.62, 9.34, 8.31, 7.24, 6.79, 7.73, 7.9, 8.73, 8.73, 9.97, 11.21, 10.8, 10.27, 9.7, 9.2, 9.58, 8.82, 9.02, 10.52, 9.67, 8.93, 9.29, 10.28, 11.57, 12.48, 13.31, 13.44, 11.56, 9.89, 9.33, 10.0, 11.03, 12.85, 14.94, 16.41, 14.47, 12.07, 9.67, 8.03, 9.12, 7.69, 8.78, 8.2, 6.98, 7.68, 8.66, 9.57, 9.57, 9.06, 8.68, 7.43, 6.99, 6.78, 6.2, 5.8, 8.31, 11.44, 12.82, 13.13, 13.33, 13.02, 12.22, 11.5, 10.76, 10.0, 7.6, 5.04, 3.52, 1.2, 0.0, 0.0, 1.11, 1.21, 1.44, 0.0, 8.22, 14.3, 14.75, 14.71, 14.37, 13.44, 12.11, 9.8, 9.61, 8.18, 5.45, 5.45, 5.45, 6.51, 6.0, 6.0, 3.22, 4.21, 5.3, 6.6, 6.6, 7.43, 8.94, 9.62, 9.34, 8.31, 7.24, 6.31, 7.56, 7.9, 8.58, 9.3, 9.97, 11.21, 11.21, 11.61, 11.87, 9.58, 9.2, 9.97, 9.1, 9.82, 10.61, 10.4, 10.75, 9.77, 10.28, 10.28, 11.62, 11.49, 11.13, 11.21, 9.77, 10.55, 13.27, 17.16, 18.41, 14.51, 12.0, 9.8, 9.13, 8.31, 8.31, 7.69, 7.69, 7.13, 6.9, 7.69, 8.38, 9.27, 9.06, 9.06, 7.21, 7.21, 6.78, 5.81, 5.36, 6.51, 10.75, 13.2, 13.58, 13.42, 12.86, 13.54, 13.01, 12.12, 12.01, 12.99, 12.46, 9.66, 3.88, 1.06, 0.0, 0.0, 0.0, 0.0, 0.0, 5.4, 13.86, 15.2, 14.69, 15.2, 14.75, 12.95, 10.43, 10.39, 9.33, 7.13, 5.27, 5.11, 5.11, 6.65, 6.0, 6.0, 3.22, 3.93, 5.14, 5.67, 6.6, 7.43, 8.94, 9.34, 9.34, 8.31, 6.7, 6.05, 6.5, 7.59, 7.9, 9.3, 10.4, 10.8, 11.71, 12.14, 11.87, 11.09, 11.99, 11.6, 10.8, 10.8, 10.68, 10.46, 10.6, 10.46, 9.32, 9.39, 9.83, 11.98, 12.72, 11.77, 10.12, 9.21, 12.33, 18.52, 16.09, 13.15, 10.99, 11.17, 10.63, 10.75, 10.75, 8.46, 7.69, 7.44, 7.96, 8.91, 9.8, 9.27, 9.06, 7.93, 7.21, 6.4, 5.99, 5.16, 6.3, 10.12, 13.42, 13.99, 14.42, 14.03, 12.73, 12.79, 12.76, 12.12, 11.7, 11.56, 12.43, 11.27, 8.99, 4.12, 0.0, 0.0, 0.0, 0.0, 0.0, 14.75, 15.78, 15.99, 15.12, 15.2, 14.56, 12.09, 11.06, 10.1, 7.93, 5.73, 4.98, 5.8, 6.0, 6.65, 4.71, 4.71, 3.0, 3.0, 4.21, 5.3, 6.6, 7.92, 8.68, 8.68, 9.06, 7.69, 6.7, 5.78, 6.24, 6.7, 7.24, 9.3, 10.8, 11.2, 12.14, 12.14, 12.3, 12.79, 12.65, 14.38, 13.59, 13.19, 14.42, 13.15, 11.26, 8.93, 9.6, 9.32, 9.76, 9.76, 11.28, 12.66, 10.77, 8.05, 9.8, 13.41, 14.3, 12.79, 12.03, 11.64, 12.16, 10.43, 10.87, 9.91, 9.21, 9.02, 9.8, 9.48, 9.27, 8.78, 7.44, 6.2, 5.33, 4.24, 4.24, 4.43, 7.54, 13.07, 14.95, 15.07, 14.42, 13.63, 12.22, 11.6, 11.2, 10.02, 9.35, 8.65, 8.7, 8.05, 5.0, 4.12, 1.63, 2.06, 3.82, 6.2, 6.6, 16.09, 16.99, 16.54, 15.65, 14.66, 13.48, 11.77, 10.39, 7.95, 6.0, 4.97, 4.89, 5.63, 6.0, 4.55, 4.71, 5.28, 2.9, 3.0, 4.21, 5.14, 6.6, 7.92, 9.22, 9.22, 8.41, 7.44, 6.2, 5.78, 6.58, 7.9, 8.85, 7.9, 10.8, 11.6, 11.6, 12.72, 11.99, 9.48, 13.41, 14.84, 13.03, 12.16, 14.53, 13.8, 11.52, 10.47, 11.45, 11.95, 12.35, 12.35, 10.27, 9.77, 7.19, 5.0, 5.98, 11.03, 12.96, 13.59, 13.8, 13.26, 12.36, 10.43, 9.92, 9.91, 10.97, 11.1, 9.69, 9.48, 8.78, 7.44, 5.33, 4.24, 3.41, 2.32, 2.24, 4.39, 11.26, 13.88, 14.81, 14.94, 13.8, 12.56, 11.38, 10.02, 8.94, 5.67, 4.34, 3.42, 2.31, 0.0, 0.0, 0.0, 1.63, 7.13, 7.78, 10.3, 10.43, 13.59, 15.19, 15.61, 14.75, 13.57, 12.5, 10.43, 7.69, 5.55, 4.36, 3.56, 4.74, 5.15, 5.45, 2.91, 3.68, 6.2, 2.9, 3.0, 4.21, 5.5, 6.6, 7.92, 9.22, 9.22, 8.41, 7.19, 5.86, 6.24, 7.78, 8.1, 7.82, 8.85, 10.37, 10.73, 10.73, 11.16, 11.99, 9.48, 9.8, 10.12, 10.79, 9.3, 8.18, 9.8, 11.06, 12.27, 13.15, 14.9, 14.75, 11.53, 8.85, 4.32, 0.0, 3.53, 7.27, 9.6, 12.58, 13.7, 12.65, 9.77, 9.48, 7.96, 9.6, 10.75, 11.68, 11.68, 11.36, 8.67, 7.44, 6.64, 4.74, 2.54, 0.0, 0.0, 1.64, 10.47, 13.59, 14.11, 14.1, 14.38, 12.86, 10.92, 9.61, 6.74, 3.79, 2.24, 0.0, 0.0, -2.5, -3.09, -3.22, -2.81, 0.0, 10.43, 12.02, 12.01, 12.96, 12.33, 13.03, 13.06, 13.29, 12.39, 10.73, 7.78, 5.18, 3.68, 3.68, 3.14, 3.53, 4.66, 4.66, 4.52, 5.46, 7.13, 1.96, 2.9, 4.21, 5.5, 6.6, 7.92, 9.22, 9.22, 8.41, 6.53, 6.31, 6.53, 5.78, 6.51, 7.13, 8.05, 10.12, 8.85, 8.18, 9.48, 9.17, 9.17, 9.8, 12.79, 10.12, 6.45, 5.21, 7.59, 11.8, 12.27, 13.19, 14.79, 11.06, 0.0, 3.82, 3.53, 4.8, 8.4, 10.79, 12.3, 11.92, 11.6, 9.67, 7.44, 6.97, 7.41, 8.32, 9.17, 11.07, 11.25, 10.43, 10.12, 9.8, 8.97, 7.43, 6.94, 3.68, -3.68, 11.62, 13.41, 14.11, 14.81, 15.41, 14.21, 12.36, 9.81, 7.57, 5.23, -1.19, -2.28, -2.11, -3.02, -5.5, -6.6, -5.92, -3.47, 3.69, 13.59, 13.18, 13.05, 13.43, 12.96, 13.14, 12.52, 12.0, 11.28, 9.17, 6.94, 4.12, 2.93, 1.98, 2.32, 3.01, 3.58, 4.81, 5.99, 6.2, 7.13, 1.96, 2.9, 4.21, 5.67, 7.06, 7.92, 9.22, 8.68, 7.68, 6.76, 6.53, 6.98, 6.64, 6.2, 6.4, 6.4, 8.05, 7.0, 7.0, 7.6, 7.8, 5.51, 5.37, 4.66, 3.58, 4.1, 4.6, 5.7, 9.17, 8.31, 3.14, 4.1, 5.4, 5.0, 7.9, 10.8, 11.03, 11.03, 11.03, 12.11, 11.64, 11.16, 8.93, 8.22, 7.15, 7.59, 7.9, 7.9, 8.53, 9.69, 11.8, 13.1, 13.65, 13.43, 13.35, 13.43, 13.97, 13.41, 2.37, 13.59, 16.39, 16.33, 15.16, 14.17, 12.71, 11.64, 10.13, 9.67, -2.21, -10.99, -8.24, -6.67, -7.36, -8.78, -8.05, 0.0, 12.27, 14.07, 13.74, 13.84, 13.24, 12.72, 12.01, 10.95, 10.43, 10.09, 8.24, 5.86, 3.97, 2.19, 1.2, 1.48, 1.72, 3.47, 5.99, 6.4, 7.58, 7.93, 1.96, 2.9, 4.21, 5.67, 7.06, 7.92, 8.46, 7.92, 7.68, 6.76, 6.0, 6.2, 6.6, 5.92, 4.98, 5.08, 5.08, 5.99, 6.54, 6.9, 5.81, 3.9, 1.94, 0.0, 0.0, 0.0, 2.06, 2.54, 3.07, 2.02, 2.1, 4.32, 6.97, 8.43, 10.18, 9.89, 9.2, 10.8, 10.87, 10.91, 11.28, 10.3, 9.27, 7.9, 8.03, 7.64, 9.3, 9.67, 10.04, 10.48, 12.18, 14.39, 16.36, 17.39, 17.25, 17.64, 17.19, 12.82, 11.6, 13.28, 17.43, 17.49, 14.99, 13.78, 13.91, 15.74, 17.54, 18.74, 16.48, -17.88, -15.65, -13.15, -9.17, -9.17, -5.8, 11.09, 14.53, 14.29, 12.9, 12.48, 12.9, 12.48, 10.98, 10.98, 9.4, 9.17, 7.14, 5.2, 3.53, 1.28, 0.0, 0.0, 2.81, 5.28, 6.2, 6.95, 7.34, 6.88, 1.96, 3.12, 4.21, 5.67, 7.06, 7.06, 7.92, 7.68, 7.68, 6.2, 6.2, 6.4, 6.6, 6.29, 6.47, 6.8, 6.95, 6.0, 4.81, 5.45, 4.24, 2.91, 1.33, 1.33, 1.21, 1.11, 2.04, 2.04, 2.71, 2.59, 4.8, 8.22, 9.67, 9.7, 9.45, 9.33, 8.82, 10.0, 9.97, 10.8, 10.41, 10.41, 9.42, 8.03, 8.8, 8.8, 9.86, 10.48, 10.8, 10.68, 10.73, 11.79, 13.44, 15.43, 16.48, 16.09, 15.25, 12.57, 9.67, 12.79, 16.09, 16.41, 13.99, 13.15, 15.56, 16.89, 20.75, 24.73, 23.32, 21.99, 19.19, -17.35, -14.42, 0.0, 12.72, 14.79, 15.35, 14.55, 12.42, 10.83, 10.75, 10.22, 8.72, 8.57, 10.34, 9.24, 8.78, 4.39, 1.39, 0.0, 1.16, 2.52, 4.24, 5.28, 6.2, 5.63, 6.2, 6.2, 1.96, 3.12, 4.08, 5.5, 5.67, 6.85, 6.85, 6.85, 6.85, 6.4, 6.4, 6.4, 5.67, 5.85, 6.66, 7.2, 7.2, 6.8, 6.6, 5.31, 5.31, 4.11, 2.64, 2.57, 2.38, 2.38, 2.18, 3.0, 4.08, 5.8, 7.78, 8.75, 10.04, 9.32, 9.2, 8.8, 8.4, 9.55, 8.82, 9.2, 9.97, 9.3, 8.94, 8.73, 8.8, 8.8, 8.8, 10.0, 10.0, 10.4, 10.27, 11.18, 13.28, 13.72, 11.6, 9.02, 9.6, 11.17, 11.93, 11.95, 13.86, 14.47, 14.23, 14.28, 14.58, 14.84, 17.19, 19.46, 20.83, 20.13, 15.6, 10.59, -6.6, 12.07, 14.28, 15.14, 15.25, 13.92, 12.2, 11.13, 9.53, 7.69, 6.2, 6.05, 8.2, 8.05, 7.93, 6.88, 3.68, 3.19, 2.71, 3.19, 5.6, 6.0, 5.27, 5.45, 6.2, 6.4, 1.96, 3.12, 3.12, 4.52, 5.5, 5.92, 6.85, 6.85, 6.85, 6.4, 6.4, 5.67, 5.67, 5.85, 5.5, 6.14, 6.14, 6.14, 5.98, 5.35, 5.19, 4.0, 3.79, 2.45, 2.28, 3.47, 3.37, 4.6, 6.8, 8.68, 9.32, 9.69, 9.82, 8.93, 8.82, 9.13, 9.55, 8.72, 9.58, 8.82, 9.2, 9.97, 8.38, 8.38, 7.33, 8.43, 8.43, 8.55, 9.6, 9.6, 9.6, 9.75, 9.13, 7.6, 6.32, 4.83, 5.7, 9.16, 13.26, 13.8, 12.07, 12.0, 12.71, 12.94, 13.15, 13.44, 15.61, 15.69, 14.57, 14.88, 14.95, 11.02, 5.99, 13.67, 15.38, 14.95, 14.31, 12.17, 10.73, 10.05, 8.29, 6.2, 4.21, 3.68, 2.37, 6.2, 6.98, 7.44, 7.78, 6.87, 6.21, 4.75, 5.8, 6.3, 5.45, 4.87, 6.4, 6.4, 1.96, 3.12, 3.12, 4.52, 4.52, 5.92, 5.92, 6.85, 6.85, 5.5, 5.67, 5.67, 5.67, 4.81, 5.35, 5.5, 6.14, 6.31, 6.31, 5.65, 5.5, 3.9, 3.62, 3.47, 3.47, 3.47, 4.54, 5.78, 7.88, 8.43, 10.22, 11.2, 11.09, 9.67, 9.2, 8.6, 9.33, 9.13, 9.58, 9.2, 8.82, 9.2, 8.38, 7.68, 7.68, 7.68, 7.68, 8.43, 8.82, 8.43, 8.03, 8.03, 6.95, 6.32, 3.8, 3.8, 5.59, 9.46, 11.72, 11.85, 11.21, 11.09, 11.09, 10.46, 10.46, 11.45, 12.2, 12.66, 13.76, 14.62, 12.35, 10.36, 9.52, 13.95, 15.61, 15.1, 13.28, 10.86, 9.23, 8.39, 8.16, 6.81, 5.04, 2.81, 1.64, 1.71, 4.38, 7.34, 8.78, 8.78, 7.69, 6.63, 6.51, 5.45, 4.81, 5.28, 7.69, 7.69, 1.96, 2.11, 3.22, 4.38, 4.38, 5.92, 5.92, 6.1, 5.92, 5.5, 5.67, 5.67, 4.81, 4.81, 4.95, 5.35, 5.35, 5.65, 5.81, 5.81, 4.01, 3.62, 3.62, 3.37, 3.16, 4.42, 5.41, 6.74, 7.63, 8.67, 10.87, 12.52, 13.23, 11.64, 8.17, 8.37, 8.63, 9.96, 8.55, 8.82, 9.2, 7.67, 7.68, 6.98, 7.27, 7.27, 8.03, 8.03, 7.27, 6.95, 6.95, 4.83, 4.83, 4.2, 4.2, 4.2, 6.14, 7.27, 8.59, 9.82, 10.48, 9.45, 9.33, 8.43, 8.43, 9.16, 11.09, 11.72, 12.65, 13.91, 10.65, 8.01, 10.2, 13.97, 15.14, 13.58, 11.94, 10.35, 9.56, 8.61, 7.89, 8.46, 7.06, 7.34, 5.8, 6.44, 3.96, 9.31, 9.06, 7.92, 6.76, 5.6, 5.8, 5.46, 6.2, 6.67, 8.38, 8.38, 1.96, 2.11, 3.22, 3.47, 4.74, 4.74, 5.92, 5.92, 6.1, 5.67, 4.66, 4.81, 4.47, 4.81, 4.81, 4.81, 5.35, 5.5, 5.65, 4.35, 3.9, 2.45, 2.21, 3.18, 4.3, 4.73, 7.4, 8.33, 7.84, 9.92, 11.26, 13.14, 14.55, 13.54, 11.2, 8.21, 8.17, 9.2, 9.2, 9.2, 8.8, 8.18, 8.18, 6.95, 6.42, 7.27, 7.27, 7.27, 6.95, 5.9, 5.06, 5.06, 3.65, 5.06, 4.4, 6.14, 6.14, 7.27, 7.9, 8.93, 8.59, 8.93, 8.03, 7.87, 8.4, 9.39, 10.28, 11.03, 8.93, 8.05, 6.22, 7.45, 10.49, 12.08, 11.7, 10.19, 9.48, 9.18, 9.05, 8.39, 8.46, 8.67, 8.11, 9.02, 10.47, 9.96, 8.38, 8.31, 9.06, 8.4, 8.68, 6.64, 5.8, 6.2, 8.31, 9.8, 9.17, 9.17, 0.99, 2.11, 3.12, 3.47, 4.38, 4.74, 4.89, 4.89, 4.66, 4.66, 4.66, 4.81, 4.6, 4.6, 4.81, 5.37, 4.66, 4.95, 4.95, 3.69, 2.57, 2.45, 2.38, 3.24, 4.81, 5.23, 7.13, 8.25, 9.67, 9.35, 11.35, 13.58, 14.42, 15.2, 13.81, 11.2, 8.66, 8.11, 8.34, 8.73, 7.27, 8.03, 6.17, 6.14, 6.42, 6.42, 6.95, 6.95, 6.95, 6.14, 5.06, 5.06, 5.06, 5.06, 6.14, 6.42, 6.95, 7.59, 8.93, 8.93, 8.59, 7.59, 8.03, 6.32, 8.91, 10.28, 10.2, 8.93, 3.61, 1.43, 2.45, 5.04, 8.67, 9.4, 6.58, 2.52, 1.15, 1.93, 4.67, 6.81, 6.74, 6.36, 6.17, 7.11, 8.87, 7.19, 6.4, 6.6, 7.38, 7.28, 8.33, 7.42, 6.2, 8.05, 11.52, 10.52, 9.48, 9.48, 0.99, 2.11, 3.12, 3.36, 4.38, 4.38, 4.52, 4.52, 4.66, 4.66, 4.66, 4.47, 4.6, 4.6, 4.6, 4.47, 3.32, 3.58, 3.39, 3.3, 3.69, 2.65, 2.65, 3.78, 5.23, 5.81, 6.72, 7.63, 7.99, 9.42, 11.35, 13.24, 14.06, 14.51, 14.57, 13.03, 11.26, 9.9, 8.55, 6.31, 6.65, 6.28, 6.28, 5.86, 5.59, 6.98, 7.27, 7.27, 6.95, 5.86, 5.86, 5.86, 5.86, 6.14, 6.32, 6.64, 7.59, 6.95, 7.59, 8.22, 6.42, 6.42, 6.95, 8.43, 9.03, 9.7, 9.75, 5.95, 2.28, 0.0, 0.89, 2.52, 1.26, 0.0, -1.17, -4.38, -6.34, -6.34, 0.0, 3.28, 4.81, 4.6, 3.2, 4.24, 5.11, 4.55, 4.87, 4.52, 5.18, 5.18, 5.81, 5.09, 5.48, 8.94, 11.64, 11.1, 10.12, 10.12, 0.99, 2.11, 3.12, 3.36, 4.38, 4.38, 4.38, 4.52, 4.66, 4.81, 4.34, 4.47, 4.6, 4.3, 4.3, 4.3, 3.09, 3.32, 1.97, 1.51, 1.69, 2.52, 2.34, 3.37, 3.56, 5.37, 5.98, 7.18, 8.2, 9.2, 11.05, 12.81, 14.19, 14.67, 14.57, 14.18, 12.41, 10.9, 9.56, 8.23, 7.27, 7.28, 6.95, 6.95, 6.64, 7.59, 6.95, 6.95, 7.27, 6.14, 5.59, 5.86, 5.86, 6.95, 7.27, 6.3, 7.27, 6.69, 6.7, 5.29, 5.29, 5.9, 6.95, 9.2, 9.46, 10.18, 10.04, 6.76, 4.65, 4.1, 3.58, 4.44, 1.43, -11.52, -10.41, -8.9, -12.01, -11.36, -7.2, 0.0, 5.56, 5.98, 5.46, 5.31, 4.71, 3.68, 5.81, 5.34, 3.69, 2.02, 1.83, 2.98, 7.6, 9.42, 9.8, 10.12, 9.62, 9.62, 1.06, 2.11, 2.11, 3.12, 3.36, 4.38, 4.38, 4.52, 4.66, 4.47, 4.47, 4.47, 4.18, 4.3, 4.3, 4.03, 2.98, 3.09, 2.09, 2.19, 2.25, 2.34, 2.28, 3.16, 4.38, 5.65, 6.47, 6.99, 7.78, 8.74, 11.26, 12.81, 14.19, 14.67, 14.29, 14.29, 13.16, 11.39, 10.29, 8.94, 8.23, 7.28, 6.64, 6.95, 7.27, 7.31, 7.59, 6.95, 6.64, 6.64, 5.59, 5.86, 6.14, 6.14, 6.95, 7.27, 6.98, 7.27, 5.52, 4.4, 3.32, 5.29, 8.03, 9.2, 9.86, 10.04, 9.62, 8.22, 8.75, 10.18, 10.43, 12.99, 13.13, -16.09, -10.24, -10.86, -14.3, -15.25, -13.24, -5.49, 4.35, 6.81, 6.85, 6.62, 5.85, 4.52, 5.81, 5.09, 2.21, 0.0, 2.81, 7.32, 8.72, 9.87, 9.27, 9.27, 8.94, 8.94, 0.99, 0.99, 2.11, 3.12, 3.12, 4.38, 4.52, 4.21, 4.34, 4.47, 4.47, 5.11, 5.26, 5.26, 4.03, 4.03, 2.98, 2.89, 2.01, 2.19, 2.25, 2.13, 2.01, 2.98, 4.26, 5.51, 6.64, 7.37, 7.99, 9.35, 10.68, 12.63, 13.46, 13.91, 13.91, 14.36, 13.23, 12.13, 10.66, 9.3, 8.58, 7.61, 7.28, 6.95, 7.28, 7.61, 8.22, 6.64, 6.32, 6.64, 5.86, 6.14, 6.14, 6.14, 6.42, 6.7, 8.49, 8.22, 5.75, 2.17, 0.0, 7.27, 10.27, 10.27, 9.67, 9.62, 9.96, 9.7, 10.0, 9.97, 11.09, 13.28, 10.0, -13.26, -9.3, -5.6, -6.4, -11.7, -13.39, -9.67, 0.0, 3.28, 4.67, 5.5, 5.09, 4.47, 3.2, 2.15, 2.65, 8.05, 6.2, 9.8, 9.57, 9.16, 8.49, 7.89, 6.96, 6.96, 0.99, 0.99, 0.99, 2.11, 3.12, 4.08, 4.08, 4.21, 4.34, 4.47, 4.18, 5.26, 5.26, 4.95, 4.95, 3.79, 2.88, 2.89, 2.07, 2.13, 3.05, 3.33, 3.16, 2.89, 3.92, 5.23, 6.47, 7.37, 8.65, 9.87, 10.92, 12.65, 13.39, 13.8, 13.97, 13.97, 13.97, 12.5, 11.03, 9.56, 8.23, 7.56, 7.61, 7.61, 6.92, 6.92, 8.24, 6.95, 6.95, 6.95, 6.58, 5.46, 6.14, 5.59, 6.95, 7.27, 7.9, 7.9, 7.15, 5.95, 3.8, 8.67, 10.27, 10.48, 9.27, 11.28, 11.6, 11.6, 9.32, 7.27, 5.1, 5.93, 8.8, 0.0, -8.6, 0.0, -2.28, -3.81, -8.18, -9.39, -7.2, -2.18, 0.0, 0.87, 0.98, 1.08, 0.0, 2.15, 8.68, 12.22, 10.12, 9.48, 7.78, 7.25, 6.79, 6.53, 5.99, 5.99, 0.0, 0.0, 0.99, 2.11, 3.12, 3.12, 4.08, 4.21, 4.34, 4.18, 4.18, 5.11, 5.26, 4.95, 4.67, 4.67, 3.58, 2.8, 2.8, 2.13, 2.97, 3.13, 3.13, 4.01, 4.03, 4.95, 6.31, 7.8, 8.65, 10.36, 12.48, 13.34, 13.02, 13.42, 14.2, 13.97, 13.97, 13.16, 12.03, 9.92, 8.45, 7.56, 7.56, 7.61, 7.28, 6.64, 6.32, 5.98, 5.98, 5.52, 5.26, 5.1, 5.59, 5.59, 6.32, 6.95, 7.27, 6.87, 6.58, 6.14, 6.95, 7.89, 8.82, 8.93, 9.82, 11.75, 11.2, 10.19, 8.22, 1.28, 0.0, 2.57, 8.34, 11.4, 8.3, 0.0, -5.52, -8.74, -7.82, -7.41, -9.22, -7.66, -5.99, -3.69, -1.01, 0.0, 0.0, 4.52, 10.43, 11.87, 11.38, 8.78, 7.38, 6.65, 6.21, 5.6, 4.99, 4.99, 0.0, 0.0, 0.99, 2.11, 2.11, 3.12, 3.12, 4.21, 4.05, 4.05, 4.18, 5.11, 5.26, 4.95, 4.67, 4.67, 3.58, 3.58, 2.88, 1.94, 2.07, 2.97, 4.12, 5.07, 4.93, 5.98, 6.81, 7.6, 8.65, 11.26, 12.48, 14.13, 14.42, 14.79, 14.2, 14.2, 13.97, 13.54, 13.16, 11.03, 8.86, 7.9, 7.56, 7.28, 7.61, 7.27, 6.95, 5.98, 5.66, 5.94, 5.21, 5.52, 5.46, 6.14, 6.14, 6.95, 6.95, 6.32, 5.86, 7.27, 7.27, 8.03, 6.64, 8.38, 10.09, 11.44, 10.24, 9.5, 5.21, 2.95, 1.76, 3.65, 6.9, 10.92, 13.88, 11.33, 5.77, -8.4, -14.79, -11.2, -11.16, -10.75, -8.94, -6.4, -2.43, 1.42, 4.66, 8.31, 9.8, 10.3, 10.22, 8.99, 7.13, 6.1, 5.1, 5.4, 4.47, 4.47, 0.0, 0.0, 0.99, 1.06, 2.11, 2.11, 3.12, 2.9, 3.93, 4.05, 4.18, 4.18, 4.95, 4.81, 4.67, 3.58, 3.58, 3.58, 2.72, 1.94, 2.07, 3.07, 4.15, 5.23, 6.14, 6.99, 6.81, 8.21, 9.19, 11.48, 13.36, 14.13, 14.81, 14.57, 14.18, 14.18, 13.91, 13.91, 13.6, 12.86, 10.65, 9.27, 8.24, 7.28, 7.61, 7.27, 7.27, 6.28, 5.66, 5.26, 5.52, 5.78, 5.78, 5.78, 5.9, 6.64, 6.14, 6.32, 5.69, 6.32, 6.87, 6.48, 7.9, 8.93, 10.8, 9.6, 9.46, 5.92, 6.45, 5.78, 4.33, 3.32, 4.27, 8.16, 13.16, 17.05, 12.87, 10.14, -16.09, -12.46, -12.39, -12.51, -10.86, -7.44, 0.0, 4.0, 7.71, 8.72, 9.06, 9.21, 7.69, 7.82, 7.76, 6.2, 5.48, 5.1, 3.68, 3.68, 0.0, 0.0, 0.0, 1.06, 2.11, 2.11, 2.9, 2.9, 3.0, 3.0, 4.05, 4.18, 3.92, 3.92, 3.69, 3.48, 3.58, 3.39, 2.72, 2.88, 2.07, 3.07, 4.03, 4.95, 5.98, 6.81, 7.57, 8.28, 9.61, 10.68, 12.63, 14.18, 14.57, 14.57, 14.57, 13.91, 13.91, 13.97, 13.97, 12.87, 11.8, 9.96, 8.59, 7.28, 7.27, 6.95, 6.88, 6.58, 5.94, 5.52, 5.52, 5.78, 6.05, 6.51, 6.79, 6.95, 6.64, 5.59, 6.52, 6.32, 5.9, 5.7, 7.27, 9.48, 10.0, 9.42, 6.5, 4.05, 3.77, 3.29, 3.81, 2.54, 1.9, 3.85, 9.47, 10.57, 11.62, 12.21, 11.52, -17.88, -13.67, -13.39, -8.83, -1.72, 1.38, 4.52, 7.21, 8.2, 8.68, 7.68, 6.64, 6.18, 7.2, 6.6, 5.55, 4.94, 4.39, 4.39, 0.0, 0.0, 0.0, 1.06, 1.06, 1.96, 2.9, 3.0, 2.81, 2.81, 3.09, 4.18, 4.03, 4.03, 3.79, 3.48, 3.48, 3.3, 2.5, 2.64, 3.07, 3.28, 3.28, 4.3, 5.81, 6.16, 7.0, 8.28, 9.61, 10.68, 12.63, 13.91, 14.18, 13.91, 13.91, 13.91, 13.46, 13.46, 13.97, 13.23, 12.52, 10.73, 9.0, 7.47, 6.64, 6.58, 6.7, 7.26, 7.26, 5.52, 5.78, 5.78, 5.9, 6.51, 6.79, 7.59, 6.87, 7.27, 7.13, 6.11, 4.98, 5.9, 7.87, 9.48, 8.94, 8.53, 6.97, 2.82, 0.0, -1.23, 0.99, 3.57, 2.81, 0.0, -3.93, 0.0, 4.78, 8.14, 10.43, 7.69, -9.43, -9.44, -1.26, 1.83, 2.98, 3.69, 4.52, 5.11, 6.16, 5.11, 5.14, 4.96, 4.91, 5.96, 5.79, 4.61, 3.87, 3.87, 0.0, 0.0, 0.0, 1.06, 1.06, 1.96, 1.96, 3.0, 2.81, 2.81, 2.81, 3.18, 3.92, 4.03, 2.97, 2.72, 2.64, 2.5, 3.3, 2.64, 2.88, 3.07, 3.28, 4.3, 5.26, 6.16, 6.8, 7.76, 8.7, 10.4, 12.76, 13.54, 13.54, 13.54, 13.46, 13.11, 13.11, 13.11, 13.46, 13.59, 12.87, 11.44, 9.69, 6.95, 5.69, 6.4, 7.85, 8.91, 8.38, 7.36, 6.57, 5.21, 5.9, 6.23, 6.51, 7.18, 7.18, 7.18, 6.98, 6.4, 4.74, 6.11, 7.81, 7.81, 7.81, 8.15, 7.9, 7.73, 1.54, -3.65, 0.0, 5.6, 6.6, 3.24, -14.38, -14.3, -4.23, 1.0, 5.14, 7.22, 3.76, 1.01, 1.83, 3.76, 3.96, 3.33, 2.44, 2.5, 2.5, 3.3, 3.1, 3.38, 3.04, 4.41, 4.19, 3.38, 3.36, 3.36, 0.0, 0.0, 0.0, 0.99, 0.99, 1.96, 1.96, 2.81, 2.81, 2.89, 2.89, 3.0, 2.98, 2.98, 2.88, 2.72, 2.72, 2.72, 3.39, 2.72, 2.88, 4.03, 4.03, 4.3, 5.26, 5.26, 5.99, 7.32, 8.65, 10.02, 12.36, 12.86, 13.16, 12.4, 12.76, 12.76, 13.11, 13.11, 12.71, 13.05, 13.23, 11.76, 10.03, 7.59, 6.32, 6.69, 8.44, 8.94, 9.06, 7.89, 6.84, 5.52, 5.52, 5.94, 6.23, 6.88, 7.18, 7.48, 6.7, 6.44, 5.46, 6.11, 6.69, 7.27, 7.21, 7.21, 7.47, 7.56, 7.15, 4.6, 5.46, 7.27, 7.23, 7.26, -11.16, -18.25, -15.91, -5.64, 0.0, 2.79, 5.01, 6.04, 5.8, 5.87, 5.46, 4.72, 3.3, 2.28, 1.54, 1.58, 1.53, 1.58, 1.58, 1.63, 2.5, 2.64, 2.64, 2.64, 0.0, 0.0, 0.96, 0.99, 0.99, 1.96, 1.96, 2.81, 2.81, 2.89, 2.89, 3.09, 3.09, 3.07, 2.88, 2.88, 2.88, 2.8, 3.69, 3.69, 3.9, 3.9, 4.95, 4.95, 5.26, 6.16, 5.99, 7.5, 9.23, 9.92, 12.52, 13.23, 12.76, 12.4, 12.4, 12.76, 12.36, 12.71, 12.71, 12.71, 12.24, 11.58, 9.8, 7.9, 6.88, 6.57, 7.62, 8.68, 8.15, 7.36, 6.05, 5.26, 5.26, 5.26, 5.86, 6.14, 6.42, 6.7, 6.7, 6.98, 6.44, 5.63, 5.2, 5.72, 6.32, 6.01, 6.64, 7.27, 7.56, 6.24, 5.72, 4.05, 3.96, 5.94, 2.55, -21.61, -16.41, -8.38, -2.64, 0.0, 3.51, 5.4, 6.32, 5.58, 5.33, 5.3, 4.57, 3.17, 1.78, 0.84, 0.0, 0.0, 0.86, 1.67, 1.63, 1.72, 2.64, 2.64, 0.0, 0.0, 0.96, 0.99, 0.99, 1.96, 1.96, 1.89, 1.89, 1.95, 3.09, 3.09, 3.09, 1.95, 2.07, 2.88, 2.88, 2.88, 3.79, 3.69, 4.54, 4.8, 5.65, 5.81, 5.64, 6.8, 6.8, 7.5, 7.89, 10.39, 11.8, 12.52, 12.76, 12.36, 12.36, 12.36, 12.36, 12.71, 12.71, 12.24, 12.24, 11.38, 10.12, 8.07, 6.7, 6.84, 7.62, 8.15, 8.15, 6.24, 5.04, 4.8, 5.26, 5.59, 5.86, 6.14, 6.58, 6.42, 6.7, 6.57, 6.31, 5.2, 5.86, 5.15, 5.44, 6.95, 6.95, 5.59, 4.4, 4.8, 4.25, 1.07, -0.97, 0.0, 3.34, -6.18, -18.78, -4.52, 0.0, 0.0, 2.79, 4.21, 4.54, 4.43, 3.96, 3.71, 3.68, 3.65, 1.83, 1.15, 0.0, 0.0, 1.06, 1.89, 2.64, 3.09, 2.81, 2.81, 0.0, 0.0, 0.89, 0.96, 0.99, 1.96, 1.83, 1.89, 1.89, 2.09, 2.09, 2.15, 2.09, 1.95, 2.01, 3.07, 3.07, 2.88, 3.79, 4.8, 5.65, 5.5, 6.45, 6.45, 6.43, 7.15, 7.54, 8.4, 8.99, 10.43, 11.33, 12.16, 12.02, 12.02, 12.36, 12.36, 12.36, 12.36, 12.24, 12.24, 11.7, 11.7, 10.17, 8.67, 6.84, 6.84, 6.72, 7.44, 7.95, 6.92, 5.28, 5.04, 5.52, 5.86, 6.14, 6.58, 6.88, 6.88, 6.88, 6.79, 7.44, 6.14, 5.59, 5.86, 6.01, 6.95, 7.59, 6.3, 4.2, 3.61, 4.3, 2.82, 0.0, -0.96, 2.09, 5.75, 3.03, 0.0, 0.0, 0.98, 1.68, 2.44, 2.72, 2.79, 2.65, 2.75, 3.14, 3.12, 2.97, 1.63, 0.0, 1.96, 1.33, 1.96, 1.77, 3.58, 3.47, 3.47, 0.0, 0.0, 0.89, 0.89, 0.99, 1.83, 1.83, 1.89, 1.95, 2.09, 2.15, 2.15, 1.08, 1.05, 2.09, 2.98, 2.98, 2.8, 3.69, 4.67, 5.65, 6.45, 6.85, 7.2, 7.0, 7.82, 8.22, 8.4, 9.44, 10.75, 11.68, 11.68, 11.68, 11.68, 12.02, 12.02, 12.36, 11.91, 12.24, 11.7, 11.7, 11.38, 10.17, 8.38, 7.1, 6.24, 6.72, 7.2, 7.69, 7.43, 6.15, 5.9, 5.64, 6.14, 6.14, 6.58, 6.88, 6.51, 6.05, 6.84, 7.26, 7.44, 5.86, 5.86, 6.95, 7.27, 6.01, 4.66, 2.83, 2.71, 3.29, 4.65, 2.81, 1.03, 1.2, 5.65, 8.51, 3.86, 0.0, 0.0, 0.84, 1.78, 1.83, 1.93, 1.88, 2.08, 2.65, 2.87, 2.57, 1.89, 0.0, 0.0, 0.0, 0.0, 0.0, 0.0, 2.49, 2.49, 0.0, 0.0, 0.89, 0.89, 0.92, 0.92, 0.95, 0.95, 2.09, 2.09, 1.08, 1.08, 1.08, 2.24, 2.24, 2.15, 2.98, 3.69, 3.69, 4.95, 5.81, 6.45, 6.85, 7.53, 7.67, 7.82, 8.83, 8.99, 9.97, 10.75, 11.68, 11.68, 11.33, 10.92, 10.92, 11.25, 11.58, 11.58, 11.38, 11.38, 11.38, 10.77, 10.47, 7.69, 6.92, 6.24, 6.48, 7.43, 7.69, 7.43, 6.67, 5.9, 5.64, 6.14, 6.58, 6.58, 6.88, 6.05, 6.05, 6.84, 7.54, 6.98, 6.42, 5.72, 6.01, 6.17, 3.8, 2.33, 0.99, 0.93, 3.92, 5.0, 5.73, 3.57, 1.47, 4.3, 8.97, 7.75, 5.41, 2.66, 2.25, 2.88, 2.72, 2.81, 2.72, 2.88, 3.05, 3.24, 2.65, 1.68, 0.0, 0.0, -1.72, -1.15, -0.86, -0.81, 0.77, 0.77, 0.0, 0.0, 0.0, 0.0, 0.92, 0.92, 0.95, 0.95, 1.05, 1.05, 1.08, 1.08, 2.31, 2.31, 2.24, 2.24, 3.92, 4.53, 4.53, 4.95, 5.81, 6.62, 7.2, 7.89, 8.29, 8.43, 8.83, 8.99, 9.97, 10.75, 11.68, 11.68, 10.92, 10.92, 10.92, 10.92, 10.43, 10.75, 11.06, 10.77, 10.77, 10.05, 9.49, 7.54, 5.29, 5.52, 5.98, 6.44, 7.43, 7.43, 6.92, 6.41, 5.9, 6.14, 6.58, 6.14, 6.42, 6.05, 6.31, 6.98, 7.54, 8.02, 6.42, 6.3, 6.01, 5.06, 2.99, 2.33, 2.17, 3.3, 4.99, 6.24, 5.73, 6.19, 5.01, 0.0, 0.0, 3.65, 4.46, 5.22, 7.07, 5.71, 5.23, 4.93, 4.8, 4.55, 4.44, 2.95, 2.19, 0.0, -1.83, -2.89, -3.93, -3.76, -3.22, -2.54, -2.39, -0.79, 0.0, 0.0, 0.0, 0.0, 0.0, 0.0, 0.95, 0.95, 0.98, 1.05, 1.08, 1.08, 2.31, 2.31, 2.31, 2.24, 3.09, 5.34, 5.34, 6.27, 5.81, 6.62, 7.36, 8.28, 8.68, 8.99, 8.72, 9.53, 9.97, 10.43, 10.75, 10.43, 10.92, 10.43, 10.43, 10.43, 10.12, 10.17, 10.17, 10.47, 9.77, 10.05, 9.22, 6.4, 5.06, 5.52, 5.98, 6.44, 7.69, 7.43, 7.18, 6.67, 6.7, 6.14, 6.14, 6.14, 6.42, 6.05, 6.57, 6.98, 7.54, 8.02, 6.98, 5.46, 4.96, 4.6, 4.6, 3.52, 4.4, 4.4, 5.45, 5.77, 6.0, 6.54, 7.32, 0.0, -12.79, -6.54, 0.0, 4.99, 8.2, 8.56, 6.81, 6.48, 6.18, 4.91, 4.82, 3.59, 1.93, 0.0, -1.38, -6.6, -7.59, -5.81, -3.96, -4.21, -3.96, -2.39, 0.0, 0.0, 0.0, 0.0, 0.0, 0.0, 0.0, 0.0, 0.0, 1.05, 1.08, 1.08, 1.17, 1.17, 2.31, 3.32, 4.05, 4.96, 6.09, 6.8, 6.27, 6.62, 7.0, 7.76, 8.46, 8.99, 8.72, 9.11, 9.67, 10.12, 10.43, 9.92, 9.92, 9.87, 9.57, 9.87, 9.57, 9.57, 10.17, 9.49, 9.77, 9.77, 9.22, 6.92, 5.69, 6.92, 7.13, 8.78, 8.2, 7.95, 7.43, 6.92, 6.7, 6.42, 6.14, 5.64, 5.9, 6.15, 6.0, 6.41, 7.54, 7.54, 5.76, 5.06, 4.83, 4.83, 3.8, 4.44, 4.4, 4.6, 4.6, 4.99, 4.9, 7.06, 9.14, 9.6, -21.2, -19.1, -10.19, 7.0, 9.61, 7.4, 6.48, 5.91, 5.65, 4.82, 3.99, 3.36, 1.78, 0.0, -1.17, -5.99, -7.36, -5.6, -5.6, -4.99, -5.06, -3.96, 0.0, 0.0, 0.0, 0.0, 0.0, 0.0, 0.0, 0.0, 0.0, 0.0, 1.05, 1.05, 1.08, 2.31, 3.32, 4.34, 4.96, 5.81, 6.6, 6.8, 6.8, 7.15, 7.54, 7.76, 8.91, 9.09, 9.11, 8.84, 9.24, 9.67, 10.12, 9.92, 9.92, 9.34, 9.57, 9.57, 9.57, 8.66, 8.94, 9.22, 9.22, 9.49, 8.2, 7.18, 6.67, 7.54, 8.72, 8.97, 8.46, 8.2, 7.95, 7.18, 7.13, 6.14, 5.64, 5.64, 5.9, 6.15, 6.15, 6.41, 6.92, 7.41, 7.82, 5.06, 5.63, 4.83, 3.15, 3.49, 3.52, 4.4, 5.45, 5.45, 5.32, 5.86, 8.16, 11.53, 8.47, -25.59, -22.79, 13.91, 9.66, 8.16, 7.3, 5.94, 4.79, 3.96, 2.59, 1.82, 0.83, 0.0, 0.0, -3.1, -6.44, -6.63, -5.6, -4.99, -5.78, -5.78, 0.0, 0.0, 0.0, 0.0, 0.0, 0.0, 0.0, 0.0, 0.0, 1.02, 1.05, 2.09, 2.09, 3.09, 4.05, 4.96, 5.81, 5.81, 6.6, 6.6, 7.45, 7.45, 7.82, 7.54, 7.97, 8.65, 8.57, 8.84, 9.24, 9.36, 9.36, 8.87, 9.16, 9.62, 9.06, 9.27, 9.27, 8.38, 8.66, 8.94, 8.94, 8.2, 7.95, 7.18, 6.92, 7.2, 8.46, 8.72, 8.2, 7.95, 7.69, 7.41, 6.04, 5.38, 5.64, 5.64, 6.15, 6.15, 6.41, 6.41, 6.67, 6.92, 6.45, 5.29, 5.9, 5.63, 4.83, 3.49, 4.96, 4.88, 5.21, 4.98, 4.23, 5.14, 7.44, 10.46, 11.86, 12.63, 15.87, 18.65, 13.74, 10.83, 8.8, 7.03, 4.59, 3.51, 1.73, 0.0, 0.0, 0.0, 0.0, -1.33, -4.93, -6.63, -6.21, -6.21, -6.21, -6.21, 0.0, 0.0, 0.0, 0.0, 0.0, 0.0, 0.0, 0.0, 0.0, 1.02, 1.02, 2.09, 4.05, 4.66, 5.48, 6.24, 6.24, 6.6, 6.6, 6.94, 7.15, 7.82, 7.82, 8.22, 8.22, 8.65, 8.99, 8.72, 8.95, 9.36, 8.59, 8.59, 8.59, 9.32, 9.62, 8.97, 8.97, 8.38, 8.38, 7.69, 7.95, 7.95, 7.69, 6.92, 6.67, 7.43, 8.2, 8.2, 7.69, 7.18, 7.41, 6.86, 5.76, 5.38, 5.64, 5.64, 6.15, 6.15, 6.41, 6.41, 6.67, 6.92, 6.7, 6.21, 6.17, 5.9, 4.83, 5.06, 5.21, 4.88, 4.2, 4.0, 4.78, 5.57, 6.08, 7.49, 9.92, 11.45, 12.56, 15.51, 14.88, 12.08, 11.1, 9.31, 6.1, 3.89, 2.53, 0.0, -0.87, 0.0, 0.0, -1.61, -4.75, -8.24, -7.41, -6.7, -6.7, -6.7, 0.0, 0.0, 0.0, 0.0, 0.0, 0.0, 0.0, 0.0, 0.0, 1.02, 1.02, 3.09, 4.66, 6.24, 6.6, 7.23, 7.59, 6.94, 7.32, 6.24, 7.15, 7.15, 8.22, 8.83, 8.83, 9.27, 8.99, 8.72, 8.87, 8.59, 8.59, 8.59, 9.02, 9.02, 9.02, 8.49, 8.21, 8.38, 7.69, 7.69, 7.69, 7.69, 7.96, 6.67, 6.41, 6.92, 6.9, 6.9, 7.69, 6.92, 6.41, 6.31, 5.49, 5.38, 5.64, 5.9, 5.29, 5.52, 5.75, 5.75, 6.41, 5.98, 6.21, 6.45, 6.21, 5.9, 4.83, 4.44, 4.66, 3.7, 3.65, 5.46, 6.17, 6.67, 6.08, 5.93, 6.4, 8.03, 11.53, 12.99, 15.3, 14.45, 13.28, 10.91, 8.29, 5.51, 2.97, 0.77, 0.0, 0.0, 0.0, -7.54, -8.85, -9.27, -9.62, -9.62, -9.62, -9.62, -0.78, -0.78, -0.81, -0.81, -0.81, 0.0, 0.0, 0.0, 0.0, 0.0, 1.02, 3.0, 5.81, 6.94, 7.23, 7.82, 7.82, 7.59, 7.59, 6.94, 7.32, 7.54, 7.54, 8.22, 8.83, 9.82, 9.53, 9.24, 8.87, 8.87, 8.59, 8.3, 8.72, 8.72, 8.72, 8.21, 8.21, 7.62, 7.2, 7.43, 8.1, 8.1, 8.61, 7.26, 6.41, 6.92, 7.43, 7.43, 7.43, 6.92, 5.75, 5.46, 5.49, 5.76, 5.64, 5.06, 5.29, 5.52, 5.75, 5.75, 5.75, 5.75, 6.7, 6.7, 6.71, 5.29, 3.49, 3.35, 3.7, 3.7, 5.21, 7.27, 6.98, 5.75, 4.64, 4.49, 5.28, 6.94, 9.09, 11.83, 13.67, 14.44, 14.69, 12.64, 9.27, 6.03, 2.85, 1.43, 1.08, 3.14, 0.0, -5.6, -8.53, -10.8, -11.6, -12.3, -12.3, -12.3, -0.78, -0.78, -0.81, -0.81, 0.0, 0.0, 0.0, 0.0, 0.0, 0.0, 1.02, 3.0, 5.81, 7.32, 7.59, 7.59, 8.18, 8.18, 8.18, 7.59, 7.98, 7.54, 8.65, 8.65, 9.27, 9.82, 9.53, 9.24, 9.36, 9.36, 8.59, 8.3, 8.72, 8.42, 8.42, 7.93, 7.51, 7.36, 7.62, 8.1, 8.1, 8.1, 8.1, 7.54, 6.41, 6.92, 7.18, 7.18, 7.18, 5.98, 5.52, 5.06, 4.96, 5.21, 5.06, 5.06, 5.29, 5.52, 5.75, 5.75, 5.52, 5.75, 6.45, 6.7, 6.97, 5.29, 4.0, 3.32, 5.06, 6.58, 6.95, 7.27, 5.69, 4.15, 3.97, 4.64, 5.8, 7.5, 8.99, 9.97, 11.55, 13.95, 14.63, 14.4, 11.4, 7.08, 2.27, 1.63, 5.8, 11.45, 8.85, 11.2, 10.04, 8.22, 9.17, 5.8, 5.8, 5.8, -0.78, -0.78, -0.81, 0.0, 0.0, 0.0, 0.0, 0.0, 0.0, 0.92, 1.89, 3.93, 5.63, 6.6, 7.32, 7.59, 7.59, 7.59, 7.59, 7.93, 7.93, 8.57, 9.27, 9.27, 9.73, 9.73, 8.99, 9.24, 9.36, 8.87, 8.59, 8.59, 8.72, 7.93, 7.93, 7.64, 7.24, 7.51, 7.93, 8.37, 8.37, 7.82, 7.82, 6.92, 6.0, 6.48, 7.18, 7.18, 6.21, 5.35, 5.52, 5.29, 5.21, 4.96, 4.83, 5.06, 5.29, 5.29, 5.52, 5.52, 5.95, 5.52, 6.45, 5.86, 6.16, 5.52, 3.49, 3.49, 3.65, 3.87, 4.05, 5.1, 3.39, 3.21, 4.32, 5.4, 6.72, 7.89, 9.16, 9.16, 10.27, 12.7, 14.78, 16.88, 14.46, 8.69, 3.6, 3.41, 11.87, 9.66, 8.53, 8.22, 9.3, 9.66, 10.37, 9.17, 9.17, 9.17, -0.78, -0.78, -0.81, -0.81, 0.0, 0.0, 0.0, 0.0, 0.92, 1.89, 2.81, 4.52, 5.81, 6.6, 7.32, 6.94, 6.94, 7.32, 7.98, 7.98, 7.98, 8.57, 9.27, 9.27, 9.73, 9.44, 9.44, 9.16, 8.87, 8.59, 8.59, 8.59, 8.21, 7.93, 7.36, 7.1, 6.7, 7.1, 7.64, 7.36, 7.82, 7.82, 7.18, 6.92, 6.24, 6.72, 7.43, 6.44, 5.57, 5.14, 4.92, 5.06, 5.46, 5.21, 4.83, 5.06, 5.06, 5.29, 5.29, 5.95, 5.95, 5.95, 5.43, 5.86, 6.16, 5.95, 4.88, 4.66, 3.45, 2.28, 2.7, 2.7, 3.61, 4.54, 5.64, 7.41, 7.68, 8.67, 9.32, 9.16, 8.87, 10.68, 15.17, 16.54, 14.06, 10.43, 8.58, 12.71, 12.38, 10.03, 8.02, 9.42, 10.01, 10.79, 10.47, 10.12, 10.12, 10.12, -0.78, -0.78, -0.81, -0.81, -0.76, 0.0, 0.0, 0.0, 0.86, 1.77, 3.47, 4.52, 6.6, 7.32, 7.32, 6.94, 7.32, 7.32, 7.32, 7.98, 7.98, 8.57, 9.27, 9.27, 9.44, 8.85, 8.85, 8.58, 8.31, 8.31, 8.05, 8.05, 7.78, 6.94, 7.36, 6.48, 6.48, 7.1, 7.1, 7.1, 6.92, 6.92, 6.92, 6.92, 6.92, 7.18, 6.67, 6.44, 4.81, 4.44, 5.29, 5.06, 6.04, 4.96, 4.83, 4.83, 5.06, 4.4, 4.4, 4.99, 4.99, 4.99, 5.21, 5.64, 6.4, 6.45, 5.1, 4.4, 4.18, 4.4, 4.88, 3.87, 1.33, 3.77, 5.92, 7.41, 8.32, 8.85, 8.97, 8.59, 8.05, 9.02, 10.83, 12.16, 11.8, 7.35, 11.38, 13.79, 12.72, 10.94, 10.36, 10.73, 11.37, 12.42, 10.91, 9.96, 9.96, 9.96, -0.78, -0.78, -0.74, -0.76, -0.76, 0.0, 0.0, 0.86, 1.72, 2.64, 3.47, 5.48, 6.24, 6.24, 6.24, 6.24, 6.6, 6.6, 7.32, 7.32, 7.32, 8.4, 8.4, 8.4, 8.4, 8.85, 8.85, 8.58, 8.31, 8.31, 8.05, 8.05, 7.19, 7.19, 6.31, 6.48, 6.48, 6.24, 6.24, 6.24, 6.92, 6.92, 6.92, 6.67, 6.21, 6.44, 6.67, 5.18, 4.99, 4.62, 5.29, 6.04, 6.04, 4.96, 4.83, 4.83, 4.2, 4.4, 4.4, 4.4, 4.99, 4.99, 5.21, 5.43, 5.86, 5.64, 4.23, 4.6, 5.45, 7.27, 6.17, 4.18, 3.87, 5.06, 6.24, 8.22, 8.53, 8.32, 7.82, 7.36, 7.19, 7.62, 8.15, 7.04, 5.28, 6.81, 13.03, 14.55, 12.52, 13.15, 12.65, 12.07, 12.79, 12.11, 10.73, 9.48, 9.48, 9.48, -0.74, -0.74, -0.74, -0.72, 0.0, 0.0, 0.0, 0.86, 1.72, 2.64, 4.27, 5.48, 6.24, 6.24, 6.24, 6.24, 6.6, 6.6, 6.99, 7.73, 7.73, 7.73, 8.4, 8.4, 8.4, 8.4, 7.93, 7.93, 7.69, 7.44, 7.44, 7.19, 7.19, 7.19, 6.31, 6.08, 6.48, 6.24, 5.57, 5.57, 5.98, 5.98, 5.98, 5.98, 5.98, 5.57, 4.99, 4.99, 4.99, 5.75, 5.95, 6.31, 6.04, 5.21, 4.6, 4.0, 4.2, 4.2, 4.2, 4.4, 4.4, 4.99, 4.99, 5.43, 5.2, 5.4, 5.99, 6.5, 6.69, 6.48, 5.46, 5.7, 6.44, 8.24, 8.03, 9.09, 8.22, 6.92, 5.57, 5.57, 6.48, 7.19, 6.78, 4.12, 5.52, 6.64, 16.19, 7.13, 11.12, 13.86, 14.1, 13.19, 12.45, 11.72, 10.43, 9.8, 9.8, 9.8, -0.74, -0.74, -0.74, 0.0, 0.0, 0.0, 0.79, 1.66, 2.55, 3.36, 4.27, 5.31, 6.24, 6.24, 5.48, 5.48, 5.81, 6.99, 6.99, 7.21, 7.73, 7.73, 7.73, 7.73, 7.73, 7.5, 7.93, 7.93, 7.69, 6.76, 6.76, 6.53, 6.53, 6.31, 6.31, 6.08, 6.48, 6.24, 5.57, 5.35, 5.57, 5.98, 5.98, 5.98, 4.62, 4.62, 4.81, 4.81, 5.98, 6.2, 6.59, 6.31, 5.46, 4.78, 4.2, 4.0, 4.0, 4.0, 4.2, 4.2, 4.2, 4.78, 4.99, 5.21, 5.0, 5.2, 6.21, 6.86, 5.98, 5.21, 4.78, 6.17, 7.06, 8.15, 8.59, 9.09, 7.9, 6.67, 6.24, 6.15, 6.41, 6.94, 7.14, 7.03, 9.47, 7.83, 5.37, 3.36, 11.99, 13.86, 14.18, 13.02, 11.93, 11.17, 10.12, 9.42, 9.42, 9.42, -0.74, -0.74, 0.0, 0.0, 0.0, 0.76, 1.66, 2.55, 3.36, 4.13, 4.87, 5.02, 5.91, 5.18, 5.18, 5.48, 5.81, 6.18, 6.99, 7.21, 7.97, 7.73, 7.73, 7.73, 7.5, 6.78, 7.21, 6.98, 6.98, 6.76, 6.76, 5.8, 5.8, 5.6, 5.6, 5.4, 5.4, 5.57, 5.57, 5.35, 5.35, 5.57, 5.57, 4.62, 4.62, 4.44, 5.14, 5.52, 6.15, 6.59, 6.59, 5.7, 4.78, 4.4, 4.4, 4.2, 3.32, 3.32, 3.32, 4.2, 4.2, 4.56, 4.78, 4.99, 5.0, 5.2, 5.98, 6.86, 6.24, 4.4, 5.21, 5.45, 5.45, 6.98, 8.24, 7.27, 8.49, 6.86, 6.57, 6.57, 7.26, 7.64, 8.8, 11.6, 11.8, 7.78, -0.0, 4.71, 12.87, 14.3, 13.89, 12.41, 12.16, 10.43, 9.5, 7.93, 7.93, 7.93, -0.74, -0.74, 0.0, 0.0, 0.0, 0.74, 1.61, 2.47, 3.25, 4.0, 4.87, 5.02, 5.02, 5.18, 5.18, 5.48, 5.81, 6.18, 6.99, 7.21, 7.21, 7.21, 7.21, 6.99, 6.78, 6.78, 6.78, 6.57, 5.81, 5.62, 5.8, 5.8, 5.6, 5.6, 5.6, 5.4, 5.4, 5.57, 5.35, 5.35, 5.35, 4.62, 4.62, 4.62, 4.44, 5.14, 5.52, 6.15, 5.9, 6.31, 5.7, 5.7, 4.99, 4.4, 4.4, 3.49, 3.49, 3.32, 3.32, 4.0, 4.2, 4.2, 3.99, 4.18, 4.36, 5.0, 6.2, 6.2, 5.7, 4.88, 4.6, 4.6, 4.8, 7.15, 7.15, 6.42, 5.46, 6.17, 6.15, 6.7, 6.98, 6.65, 7.53, 10.38, 10.3, 9.71, 4.35, 12.3, 13.59, 14.75, 14.42, 12.5, 11.06, 9.62, 8.46, 8.2, 8.2, 8.2, 0.0, 0.0, 0.0, 0.0, 0.76, 1.61, 2.39, 2.39, 3.25, 3.25, 4.87, 5.02, 5.73, 5.18, 5.18, 5.48, 5.81, 6.18, 6.6, 6.6, 6.8, 6.8, 6.37, 6.18, 5.99, 5.99, 5.99, 5.81, 5.62, 5.62, 4.65, 4.81, 4.81, 4.81, 4.64, 4.64, 4.64, 4.47, 4.81, 4.62, 4.62, 4.62, 4.62, 5.35, 5.14, 6.15, 6.15, 5.9, 5.9, 5.29, 5.29, 4.6, 4.6, 4.4, 3.65, 3.65, 3.49, 3.32, 3.32, 3.32, 3.32, 3.49, 3.99, 4.18, 4.18, 4.36, 5.21, 5.21, 5.7, 5.1, 4.6, 4.8, 6.24, 7.15, 6.24, 5.98, 5.46, 4.88, 5.45, 6.59, 5.35, 5.06, 5.02, 5.4, 5.33, 7.95, 10.1, 11.06, 13.7, 14.42, 13.89, 11.87, 10.52, 9.2, 7.92, 7.92, 7.92, 7.92, 0.0, 0.0, 0.0, 0.74, 1.51, 1.61, 2.39, 2.47, 3.25, 4.0, 4.87, 5.55, 5.73, 5.91, 5.91, 5.91, 6.24, 6.6, 6.18, 6.8, 6.8, 6.8, 5.85, 6.18, 5.99, 5.99, 4.97, 4.97, 4.81, 4.65, 4.65, 4.49, 4.81, 4.33, 4.33, 4.64, 4.47, 4.47, 4.47, 4.62, 4.62, 5.35, 5.35, 5.76, 5.76, 6.15, 6.15, 5.9, 5.29, 5.29, 5.29, 4.4, 4.6, 4.4, 3.65, 3.65, 3.49, 3.49, 3.32, 3.15, 2.57, 2.57, 2.7, 3.11, 3.99, 3.99, 4.99, 4.99, 4.99, 5.32, 4.8, 5.32, 6.24, 7.15, 6.24, 5.98, 5.72, 5.21, 5.72, 4.44, 3.53, 2.44, 2.55, 2.65, 3.46, 5.96, 10.54, 12.95, 10.52, 11.69, 11.88, 10.75, 8.97, 8.4, 7.28, 6.6, 6.6, 6.6, 0.0, 0.0, 0.0, 0.74, 1.51, 1.51, 2.25, 3.07, 3.07, 4.0, 4.87, 5.55, 5.73, 5.73, 5.91, 5.73, 6.05, 6.6, 6.99, 6.18, 5.46, 5.46, 5.85, 5.46, 5.14, 4.97, 4.97, 4.97, 4.81, 4.65, 4.65, 4.49, 4.49, 4.33, 4.33, 4.33, 4.64, 4.47, 4.47, 5.0, 5.35, 5.35, 5.76, 5.76, 5.76, 5.14, 4.92, 4.92, 4.92, 4.92, 4.92, 4.07, 4.4, 4.4, 3.65, 3.49, 3.49, 3.49, 2.7, 2.57, 2.44, 2.44, 2.57, 2.57, 2.7, 3.49, 3.99, 4.78, 4.78, 3.99, 4.78, 5.32, 5.32, 5.7, 5.7, 5.1, 5.1, 3.87, 2.39, 2.82, 2.71, 2.44, 2.63, 2.72, 4.56, 6.81, 9.8, 11.14, 11.99, 10.47, 10.6, 8.29, 7.0, 6.66, 6.47, 6.02, 6.02, 6.02, 0.0, 0.0, 0.74, 1.46, 1.46, 2.25, 2.25, 2.97, 3.78, 4.71, 5.55, 5.55, 5.73, 5.73, 5.73, 6.4, 6.4, 6.05, 6.6, 5.81, 5.3, 5.46, 4.47, 4.34, 5.14, 4.97, 4.97, 4.81, 4.81, 4.65, 4.65, 4.49, 4.33, 4.33, 4.33, 4.33, 4.33, 5.2, 5.2, 5.2, 6.0, 6.0, 5.35, 5.14, 5.14, 5.14, 4.92, 4.92, 4.92, 4.92, 4.07, 4.07, 3.36, 3.65, 3.65, 3.49, 2.7, 2.57, 1.84, 1.75, 1.75, 1.67, 1.67, 2.57, 2.57, 3.49, 3.49, 4.2, 4.56, 3.99, 4.78, 5.54, 5.54, 5.75, 4.4, 4.05, 4.05, 3.61, 3.61, 3.39, 2.71, 3.55, 3.46, 4.31, 6.36, 7.98, 9.91, 11.16, 10.91, 11.45, 8.88, 8.03, 6.72, 4.35, 3.72, 4.3, 4.3, 4.3, 0.74, 0.74, 0.76, 1.51, 2.13, 2.13, 2.81, 3.47, 4.31, 5.38, 5.38, 5.55, 5.73, 5.73, 5.73, 5.73, 5.73, 5.73, 6.05, 6.24, 5.81, 5.3, 5.3, 5.3, 5.14, 4.97, 4.97, 4.81, 4.81, 4.65, 4.65, 4.49, 4.33, 4.33, 4.33, 4.87, 4.87, 5.2, 5.2, 5.0, 5.0, 5.0, 5.0, 4.8, 5.14, 5.14, 5.14, 4.25, 4.25, 4.25, 3.36, 3.36, 3.36, 2.59, 2.7, 2.7, 1.84, 1.75, 1.75, 1.75, 1.75, 1.67, 1.67, 2.44, 2.57, 3.32, 3.32, 4.2, 4.2, 4.56, 3.99, 3.99, 3.99, 4.32, 4.6, 4.05, 4.05, 4.6, 4.6, 4.36, 3.82, 3.42, 4.1, 5.06, 7.46, 9.03, 10.58, 10.93, 12.15, 11.45, 10.19, 8.74, 6.31, 3.33, 2.96, 2.8, 2.8, 2.8, 0.74, 0.74, 0.76, 1.51, 2.13, 2.13, 2.81, 3.47, 4.31, 5.38, 5.38, 5.55, 5.73, 5.73, 5.73, 5.73, 5.73, 5.73, 6.05, 6.24, 5.81, 5.3, 5.3, 5.3, 5.14, 4.97, 4.97, 4.81, 4.81, 4.65, 4.65, 4.49, 4.33, 4.33, 4.33, 4.87, 4.87, 5.2, 5.2, 5.0, 5.0, 5.0, 5.0, 4.8, 5.14, 5.14, 5.14, 4.25, 4.25, 4.25, 3.36, 3.36, 3.36, 2.59, 2.7, 2.7, 1.84, 1.75, 1.75, 1.75, 1.75, 1.67, 1.67, 2.44, 2.57, 3.32, 3.32, 4.2, 4.2, 4.56, 3.99, 3.99, 3.99, 4.32, 4.6, 4.05, 5.1, 4.6, 4.6, 4.36, 3.82, 4.3, 4.06, 5.31, 7.23, 9.55, 11.41, 11.78, 12.22, 12.01, 10.57, 9.92, 8.56, 6.28, 4.01, 1.73, 1.73, 1.73]}]